KC8P Weather Reports


time (UTC)temp
F
wind
direction
speed
knots
gust
knots
rain 1hr
in
rain 24hr
in
rain mn
in
humidity
%
barometer
mb
20260510164355 57 316 0.9 7.0 0.00 0.32 0.00 38 1018.1
20260510164318 57 258 1.7 7.0 0.00 0.32 0.00 38 1018.1
20260510164251 57 239 3.5 7.0 0.00 0.32 0.00 36 1018.1
20260510164144 57 114 4.3 7.0 0.00 0.32 0.00 34 1018.1
20260510164038 57 221 4.3 7.0 0.00 0.32 0.00 39 1018.1
20260510163932 56 327 0.9 7.0 0.00 0.32 0.00 38 1018.1
20260510163826 56 279 1.7 7.0 0.00 0.32 0.00 39 1018.1
20260510163810 57 274 2.6 7.0 0.00 0.32 0.00 38 1018.1
20260510163720 57 314 5.2 7.0 0.00 0.32 0.00 36 1018.1
20260510163615 57 19 1.7 7.0 0.00 0.32 0.00 37 1018.1
20260510163510 57 13 4.3 7.0 0.00 0.32 0.00 37 1018.1
20260510163404 58 325 2.6 5.2 0.00 0.32 0.00 35 1018.1
20260510163304 58 2 1.7 5.2 0.00 0.32 0.00 37 1018.1
20260510163257 58 207 2.6 5.2 0.00 0.32 0.00 35 1018.1
20260510163152 58 3 1.7 6.1 0.00 0.32 0.00 36 1018.1
20260510163046 58 293 1.7 8.7 0.00 0.32 0.00 37 1018.1
20260510162940 57 296 0.9 8.7 0.00 0.32 0.00 39 1018.1
20260510162834 57 145 0.0 8.7 0.00 0.32 0.00 38 1018.1
20260510162757 57 136 1.7 8.7 0.00 0.32 0.00 36 1018.1
20260510162728 57 129 0.9 8.7 0.00 0.32 0.00 40 1018.1
20260510162623 57 344 1.7 8.7 0.00 0.32 0.00 38 1018.1
20260510162517 56 224 2.6 8.7 0.00 0.32 0.00 39 1018.1
20260510162411 56 342 1.7 8.7 0.00 0.32 0.00 37 1018.1
20260510162306 57 210 2.6 8.7 0.00 0.32 0.00 35 1018.1
20260510162250 57 252 3.5 8.7 0.00 0.32 0.00 37 1018.1
20260510162201 58 280 5.2 8.7 0.00 0.32 0.00 36 1018.1
20260510162054 58 228 1.7 5.2 0.00 0.32 0.00 37 1017.7
20260510161950 58 306 2.6 5.2 0.00 0.32 0.00 38 1017.7
20260510161844 57 238 0.9 5.2 0.00 0.32 0.00 37 1017.7
20260510161739 58 139 1.7 5.2 0.00 0.32 0.00 35 1018.1
20260510161633 58 202 1.7 6.1 0.00 0.32 0.00 34 1018.1
20260510161527 57 225 1.7 6.1 0.00 0.32 0.00 39 1018.1
20260510161422 56 154 0.9 6.1 0.00 0.32 0.00 39 1018.1
20260510161316 56 9 0.9 6.1 0.00 0.32 0.00 38 1018.1
20260510161237 56 295 2.6 6.1 0.00 0.32 0.00 37 1018.1
20260510161209 56 358 3.5 6.1 0.00 0.32 0.00 37 1018.1
20260510161104 56 346 2.6 7.0 0.00 0.32 0.00 36 1018.1
20260510160958 55 28 2.6 7.0 0.00 0.32 0.00 35 1018.1
20260510160853 55 34 1.7 7.0 0.00 0.32 0.00 37 1018.1
20260510160747 54 319 1.7 8.7 0.00 0.32 0.00 39 1018.1
20260510160731 54 303 1.7 8.7 0.00 0.32 0.00 38 1018.1
20260510160654 54 281 1.7 8.7 0.00 0.32 0.00 38 1017.7
20260510160535 55 18 5.2 8.7 0.00 0.32 0.00 36 1018.1
20260510160443 55 335 3.5 8.7 0.00 0.32 0.00 39 1017.7
20260510160337 55 326 2.6 8.7 0.00 0.32 0.00 38 1017.7
20260510160226 55 222 1.7 8.7 0.00 0.32 0.00 37 1017.7
20260510160218 55 44 2.6 8.7 0.00 0.32 0.00 36 1017.7
20260510160113 55 185 2.6 8.7 0.00 0.32 0.00 37 1018.1
20260510160008 55 306 0.9 8.7 0.00 0.32 0.00 38 1018.1
20260510155902 55 300 1.7 8.7 0.00 0.32 0.00 38 1018.1
20260510155756 56 249 3.5 5.2 0.00 0.32 0.00 37 1018.1
20260510155718 56 28 2.6 5.2 0.00 0.32 0.00 36 1018.1
20260510155651 56 280 2.6 8.7 0.00 0.32 0.00 36 1017.7
20260510155544 56 259 1.7 8.7 0.00 0.32 0.00 37 1017.7
20260510155439 57 166 1.7 8.7 0.00 0.32 0.00 36 1017.7
20260510155333 56 69 2.6 8.7 0.00 0.32 0.00 37 1018.1
20260510155227 55 325 0.9 8.7 0.00 0.32 0.00 38 1018.1
20260510155212 55 26 0.9 8.7 0.00 0.32 0.00 38 1018.1
20260510155122 55 74 0.9 8.7 0.00 0.32 0.00 39 1017.7
20260510155017 55 331 1.7 8.7 0.00 0.32 0.00 37 1018.1
20260510154911 55 335 4.3 8.7 0.00 0.32 0.00 38 1018.1
20260510154805 55 254 1.7 8.7 0.00 0.32 0.00 39 1017.7
20260510154705 55 261 5.2 7.8 0.00 0.32 0.00 38 1017.7
20260510154700 55 261 5.2 7.8 0.00 0.32 0.00 38 1017.7
20260510154554 55 319 2.6 7.8 0.00 0.32 0.00 40 1018.1
20260510154448 54 347 3.5 7.8 0.00 0.32 0.00 38 1017.7
20260510154342 54 220 2.6 7.8 0.00 0.32 0.00 40 1017.7
20260510154236 54 1 2.6 7.8 0.00 0.32 0.00 38 1017.7
20260510154159 54 339 4.3 7.8 0.00 0.32 0.00 37 1017.7
20260510154131 54 90 2.6 6.1 0.00 0.32 0.00 40 1017.7
20260510154025 54 320 2.6 6.1 0.00 0.32 0.00 40 1017.7
20260510153919 55 339 5.2 6.1 0.00 0.32 0.00 38 1017.7
20260510153814 55 326 3.5 6.1 0.00 0.32 0.00 40 1017.7
20260510153707 55 204 0.9 6.1 0.00 0.32 0.00 37 1018.1
20260510153652 55 287 1.7 6.1 0.00 0.32 0.00 37 1018.1
20260510153603 56 2 0.0 6.1 0.00 0.32 0.00 38 1017.7
20260510153458 56 320 3.5 6.1 0.00 0.32 0.00 36 1017.7
20260510153405 55 39 2.6 6.1 0.00 0.32 0.00 37 1017.7
20260510153245 55 325 0.0 6.1 0.00 0.32 0.00 41 1017.7
20260510153148 55 329 3.5 6.1 0.00 0.32 0.00 39 1018.1
20260510153140 55 326 3.5 6.1 0.00 0.32 0.00 39 1018.1
20260510153034 55 23 2.6 6.1 0.00 0.32 0.00 38 1017.7
20260510152929 56 346 1.7 6.1 0.00 0.32 0.00 39 1017.7
20260510152823 57 330 4.3 6.1 0.00 0.32 0.00 38 1017.7
20260510152717 57 226 2.6 6.1 0.00 0.32 0.00 37 1017.7
20260510152640 57 267 2.6 6.1 0.00 0.32 0.00 40 1017.3
20260510152611 57 253 0.9 6.1 0.00 0.32 0.00 39 1017.3
20260510152507 56 209 0.0 6.1 0.00 0.32 0.00 42 1017.7
20260510152400 56 259 1.7 6.1 0.00 0.32 0.00 38 1017.7
20260510152254 55 342 1.7 6.1 0.00 0.32 0.00 39 1017.7
20260510152133 55 186 0.9 6.1 0.00 0.32 0.00 40 1017.7
20260510152056 54 242 2.6 6.1 0.00 0.32 0.00 39 1017.7
20260510151938 53 157 0.0 6.1 0.00 0.32 0.00 41 1017.7
20260510151832 53 4 0.9 6.1 0.00 0.32 0.00 42 1017.7
20260510151726 53 28 3.5 6.1 0.00 0.32 0.00 41 1017.7
20260510151621 53 333 2.6 8.7 0.00 0.32 0.00 40 1017.3
20260510151515 53 348 1.7 8.7 0.00 0.32 0.00 40 1017.3
20260510151409 55 302 1.7 8.7 0.00 0.32 0.00 40 1017.3
20260510151304 55 348 3.5 8.7 0.00 0.32 0.00 38 1017.7
20260510151158 55 313 1.7 8.7 0.00 0.32 0.00 39 1017.3
20260510151120 55 204 0.9 8.7 0.00 0.32 0.00 43 1017.7
20260510151052 55 345 0.9 8.7 0.00 0.32 0.00 41 1017.7
20260510150959 55 324 3.5 8.7 0.00 0.32 0.00 39 1017.3
20260510150841 55 276 0.9 8.7 0.00 0.32 0.00 39 1017.7
20260510150736 55 53 5.2 8.7 0.00 0.32 0.00 38 1017.7
20260510150630 55 295 1.7 6.1 0.00 0.32 0.00 40 1017.7
20260510150613 55 318 1.7 6.1 0.00 0.32 0.00 40 1017.7
20260510150524 55 65 1.7 6.1 0.00 0.32 0.00 41 1017.7
20260510150419 54 40 0.9 6.1 0.00 0.32 0.00 44 1017.7
20260510150313 53 119 0.0 6.1 0.00 0.32 0.00 43 1017.3
20260510150208 53 240 2.6 6.1 0.00 0.32 0.00 43 1017.3
20260510150108 52 227 2.6 6.1 0.00 0.32 0.00 41 1017.3
20260510145955 52 351 0.9 6.1 0.00 0.32 0.00 42 1017.3
20260510145849 52 303 0.9 6.1 0.00 0.32 0.00 41 1017.3
20260510145745 52 333 3.5 6.1 0.00 0.32 0.00 41 1017.7
20260510145639 52 31 0.9 6.1 0.00 0.32 0.00 43 1017.3
20260510145601 52 2 2.6 7.0 0.00 0.32 0.00 42 1017.3
20260510145533 52 348 2.6 7.8 0.00 0.32 0.00 42 1016.9
20260510145428 52 309 1.7 7.8 0.00 0.32 0.00 41 1017.3
20260510145321 53 312 3.5 7.8 0.00 0.32 0.00 42 1017.3
20260510145216 53 65 2.6 7.8 0.00 0.32 0.00 41 1017.3
20260510145110 53 35 2.6 7.8 0.00 0.32 0.00 42 1017.3
20260510145054 53 35 2.6 7.8 0.00 0.32 0.00 42 1017.3
20260510145003 53 49 1.7 7.8 0.00 0.32 0.00 44 1017.3
20260510144857 52 286 1.7 7.8 0.00 0.32 0.00 45 1017.3
20260510144752 52 257 0.9 7.8 0.00 0.32 0.00 43 1017.3
20260510144647 53 224 5.2 7.8 0.00 0.32 0.00 42 1017.3
20260510144540 53 231 2.6 3.5 0.00 0.32 0.00 44 1017.3
20260510144435 53 118 0.0 3.5 0.00 0.32 0.00 41 1017.3
20260510144330 53 160 0.9 3.5 0.00 0.32 0.00 41 1016.9
20260510144224 53 324 0.9 3.5 0.00 0.32 0.00 41 1016.9
20260510144118 53 255 2.6 3.5 0.00 0.32 0.00 41 1017.3
20260510144040 54 330 2.6 3.5 0.00 0.32 0.00 44 1017.3
20260510144012 54 276 0.9 3.5 0.00 0.32 0.00 42 1017.3
20260510143907 54 344 1.7 3.5 0.00 0.32 0.00 41 1017.3
20260510143801 53 252 0.0 3.5 0.00 0.32 0.00 45 1016.9
20260510143655 53 344 0.0 3.5 0.00 0.32 0.00 43 1016.9
20260510143550 54 335 1.7 3.5 0.00 0.32 0.00 42 1016.9
20260510143534 54 326 1.7 3.5 0.00 0.32 0.00 42 1016.9
20260510143443 54 292 1.7 5.2 0.00 0.32 0.00 41 1016.9
20260510143338 54 44 0.9 5.2 0.00 0.32 0.00 41 1017.3
20260510143233 53 40 0.9 5.2 0.00 0.32 0.00 45 1016.9
20260510143127 52 217 0.0 5.2 0.00 0.32 0.00 43 1016.9
20260510143027 52 4 0.9 5.2 0.00 0.32 0.00 42 1016.9
20260510143021 52 101 2.6 5.2 0.00 0.32 0.00 42 1016.9
20260510142916 52 307 1.7 5.2 0.00 0.32 0.00 41 1016.9
20260510142810 52 338 0.9 5.2 0.00 0.32 0.00 41 1016.9
20260510142704 52 320 1.7 6.1 0.00 0.32 0.00 44 1016.9
20260510142558 53 326 1.7 7.0 0.00 0.32 0.00 42 1016.9
20260510142521 53 318 2.6 7.0 0.00 0.32 0.00 42 1016.9
20260510142453 53 302 2.6 7.0 0.00 0.32 0.00 42 1016.9
20260510142347 52 251 1.7 7.0 0.00 0.32 0.00 45 1016.9
20260510142242 52 323 1.7 7.0 0.00 0.32 0.00 44 1016.9
20260510142137 51 16 2.6 7.0 0.00 0.32 0.00 44 1017.3
20260510142014 51 269 0.9 7.0 0.00 0.32 0.00 43 1017.3
20260510141924 51 338 1.7 7.0 0.00 0.32 0.00 43 1016.9
20260510141818 52 244 1.7 7.0 0.00 0.32 0.00 43 1016.9
20260510141714 52 283 4.3 7.0 0.00 0.32 0.00 42 1016.9
20260510141608 52 324 1.7 6.1 0.00 0.32 0.00 43 1016.9
20260510141509 52 125 0.0 6.1 0.00 0.32 0.00 46 1016.9
20260510141502 52 99 0.9 6.1 0.00 0.32 0.00 47 1016.9
20260510141356 52 256 0.9 6.1 0.00 0.32 0.00 45 1016.9
20260510141251 52 195 2.6 6.1 0.00 0.32 0.00 45 1016.9
20260510141145 52 339 1.7 6.1 0.00 0.32 0.00 48 1016.9
20260510141039 51 89 0.0 6.1 0.00 0.32 0.00 46 1016.9
20260510141002 51 78 1.7 6.1 0.00 0.32 0.00 46 1016.9
20260510140934 51 76 2.6 6.1 0.00 0.32 0.00 46 1016.9
20260510140828 50 25 3.5 6.1 0.00 0.32 0.00 46 1016.9
20260510140722 50 351 0.9 5.2 0.00 0.32 0.00 47 1016.9
20260510140617 50 345 1.7 7.0 0.00 0.32 0.00 46 1016.9
20260510140511 51 45 1.7 7.0 0.00 0.32 0.00 46 1016.9
20260510140456 51 321 1.7 7.0 0.00 0.32 0.00 46 1016.9
20260510140405 51 14 0.9 7.0 0.00 0.32 0.00 47 1016.9
20260510140300 51 13 3.5 7.0 0.00 0.32 0.00 47 1016.9
20260510140101 51 247 0.9 7.0 0.00 0.32 0.00 47 1016.9
20260510135949 51 331 1.7 7.0 0.00 0.32 0.00 47 1016.9
20260510135942 51 115 2.6 7.0 0.00 0.32 0.00 47 1017.3
20260510135840 51 322 0.9 7.0 0.00 0.32 0.00 47 1016.9
20260510135731 51 358 5.2 7.0 0.00 0.32 0.00 46 1016.9
20260510135625 51 40 2.6 7.0 0.00 0.32 0.00 47 1016.9
20260510135521 51 292 4.3 7.0 0.00 0.32 0.00 45 1016.9
20260510135443 51 345 1.7 3.5 0.00 0.32 0.00 47 1016.9
20260510135415 51 221 0.0 3.5 0.00 0.32 0.00 47 1016.9
20260510135310 51 131 1.7 5.2 0.00 0.32 0.00 47 1016.9
20260510135204 51 193 1.7 5.2 0.00 0.32 0.00 46 1016.9
20260510135058 50 102 0.0 5.2 0.00 0.32 0.00 48 1016.9
20260510134936 50 339 1.7 5.2 0.00 0.32 0.00 48 1016.9
20260510134741 50 269 3.5 5.2 0.00 0.32 0.00 47 1016.9
20260510134635 49 213 0.9 5.2 0.00 0.32 0.00 48 1016.9
20260510134530 49 227 0.9 7.8 0.00 0.32 0.00 49 1016.9
20260510134430 50 325 3.5 7.8 0.00 0.32 0.00 48 1016.9
20260510134423 50 358 3.5 7.8 0.00 0.32 0.00 47 1016.9
20260510134317 51 344 3.5 7.8 0.00 0.32 0.00 46 1016.9
20260510134211 51 356 2.6 7.8 0.00 0.32 0.00 48 1016.9
20260510134107 50 22 1.7 7.8 0.00 0.32 0.00 48 1016.9
20260510134001 49 113 0.9 7.8 0.00 0.32 0.00 49 1016.9
20260510133923 49 27 0.9 7.8 0.00 0.32 0.00 49 1016.9
20260510133855 49 25 0.9 7.8 0.00 0.32 0.00 50 1016.9
20260510133749 49 320 0.9 7.8 0.00 0.32 0.00 49 1016.9
20260510133643 49 349 1.7 7.8 0.00 0.32 0.00 49 1016.9
20260510133538 49 332 0.9 7.8 0.00 0.32 0.00 49 1016.9
20260510133432 49 320 2.6 7.8 0.00 0.32 0.00 49 1016.9
20260510133417 49 273 1.7 7.8 0.00 0.32 0.00 48 1016.9
20260510133326 49 1 3.5 7.8 0.00 0.32 0.00 48 1016.6
20260510133221 49 350 3.5 7.8 0.00 0.32 0.00 49 1016.9
20260510133116 49 343 3.5 6.1 0.00 0.32 0.00 48 1016.9
20260510133010 49 243 3.5 5.2 0.00 0.32 0.00 49 1016.9
20260510132911 50 317 3.5 3.5 0.00 0.32 0.00 49 1016.6
20260510132759 50 339 0.9 3.5 0.00 0.32 0.00 50 1016.6
20260510132653 50 186 1.7 3.5 0.00 0.32 0.00 52 1016.6
20260510132549 50 15 1.7 3.5 0.00 0.32 0.00 49 1016.6
20260510132442 50 224 0.0 3.5 0.00 0.32 0.00 52 1016.6
20260510132404 50 157 0.0 3.5 0.00 0.32 0.00 52 1016.6
20260510132337 50 264 2.6 3.5 0.00 0.32 0.00 53 1016.6
20260510132230 50 339 0.9 3.5 0.00 0.32 0.00 52 1016.6
20260510132126 49 118 0.9 6.1 0.00 0.32 0.00 52 1016.9
20260510132019 49 3 0.0 6.1 0.00 0.32 0.00 52 1016.6
20260510131925 49 42 0.9 6.1 0.00 0.32 0.00 51 1016.9
20260510131858 49 316 2.6 6.1 0.00 0.32 0.00 51 1016.9
20260510131808 49 9 0.9 6.1 0.00 0.32 0.00 54 1016.3
20260510131702 48 228 1.7 6.1 0.00 0.32 0.00 53 1016.6
20260510131557 48 52 1.7 6.1 0.00 0.32 0.00 54 1016.6
20260510131451 48 333 1.7 6.1 0.00 0.32 0.00 53 1016.6
20260510131351 48 14 1.7 6.1 0.00 0.32 0.00 53 1016.6
20260510131345 48 43 0.0 6.1 0.00 0.32 0.00 54 1016.3
20260510131252 48 48 2.6 6.1 0.00 0.32 0.00 52 1016.6
20260510131131 48 8 3.5 6.1 0.00 0.32 0.00 53 1016.6
20260510131027 48 23 0.9 6.1 0.00 0.32 0.00 54 1016.6
20260510130921 47 278 0.0 6.1 0.00 0.32 0.00 56 1016.3
20260510130843 47 278 0.0 6.1 0.00 0.32 0.00 56 1016.3
20260510130814 47 277 0.9 6.1 0.00 0.32 0.00 55 1016.3
20260510130710 47 249 1.7 6.1 0.00 0.32 0.00 54 1016.6
20260510130604 47 279 0.9 6.1 0.00 0.32 0.00 54 1016.3
20260510130527 47 263 2.6 6.1 0.00 0.32 0.00 54 1016.6
20260510130353 48 331 2.6 6.1 0.00 0.32 0.00 53 1016.6
20260510130337 48 324 3.5 6.1 0.00 0.32 0.00 55 1016.3
20260510130246 48 38 4.3 5.2 0.00 0.32 0.00 56 1016.6
20260510130141 48 315 0.9 3.5 0.00 0.32 0.00 56 1016.3
20260510130034 48 9 1.7 5.2 0.00 0.32 0.00 58 1016.3
20260510125830 47 346 0.0 5.2 0.00 0.32 0.00 58 1016.3
20260510125823 47 293 0.0 5.2 0.00 0.32 0.00 58 1016.3
20260510125717 46 345 2.6 5.2 0.00 0.32 0.00 58 1016.3
20260510125612 46 350 2.6 5.2 0.00 0.32 0.00 57 1016.3
20260510125506 46 319 1.7 5.2 0.00 0.32 0.00 57 1016.3
20260510125400 46 301 0.9 5.2 0.00 0.32 0.00 58 1016.3
20260510125323 46 316 1.7 5.2 0.00 0.32 0.00 58 1016.3
20260510125255 46 351 3.5 5.2 0.00 0.32 0.00 57 1016.3
20260510125149 46 1 1.7 5.2 0.00 0.32 0.00 57 1016.3
20260510125044 46 341 2.6 5.2 0.00 0.32 0.00 58 1016.6
20260510124938 46 332 1.7 5.2 0.00 0.32 0.00 58 1016.6
20260510124817 46 308 1.7 5.2 0.00 0.32 0.00 58 1016.3
20260510124727 46 332 3.5 5.2 0.00 0.32 0.00 58 1016.3
20260510124621 46 338 1.7 3.5 0.00 0.32 0.00 59 1016.3
20260510124515 46 316 0.9 3.5 0.00 0.32 0.00 61 1016.6
20260510124410 46 329 0.0 3.5 0.00 0.32 0.00 60 1016.6
20260510124310 46 13 1.7 3.5 0.00 0.32 0.00 61 1016.3
20260510124304 45 356 0.9 3.5 0.00 0.32 0.00 61 1016.3
20260510124158 45 311 1.7 3.5 0.00 0.32 0.00 60 1016.3
20260510124052 45 342 0.9 3.5 0.00 0.32 0.00 60 1016.6
20260510123959 45 38 0.9 3.5 0.00 0.32 0.00 60 1016.3
20260510123841 45 16 1.7 3.5 0.00 0.32 0.00 60 1016.3
20260510123803 45 347 1.7 3.5 0.00 0.32 0.00 60 1016.3
20260510123735 45 13 0.9 3.5 0.00 0.32 0.00 61 1016.3
20260510123629 45 317 1.7 3.5 0.00 0.32 0.00 61 1016.3
20260510123524 45 346 1.7 3.5 0.00 0.32 0.00 61 1016.3
20260510123418 45 338 1.7 3.5 0.00 0.32 0.00 61 1016.3
20260510123312 45 332 0.9 3.5 0.00 0.32 0.00 62 1016.3
20260510123256 45 332 0.9 3.5 0.00 0.32 0.00 61 1016.3
20260510123206 45 43 1.7 3.5 0.00 0.32 0.00 61 1016.3
20260510123100 45 50 1.7 3.5 0.00 0.32 0.00 62 1016.3
20260510122956 45 62 2.6 3.5 0.00 0.32 0.00 62 1016.3
20260510122850 45 45 0.9 3.5 0.00 0.32 0.00 62 1016.3
20260510122751 45 4 0.9 5.2 0.00 0.32 0.00 62 1016.3
20260510122744 45 344 1.7 5.2 0.00 0.32 0.00 62 1016.3
20260510122639 45 16 0.9 5.2 0.00 0.32 0.00 62 1016.3
20260510122533 45 315 0.9 5.2 0.00 0.32 0.00 62 1016.3
20260510122427 45 332 1.7 5.2 0.00 0.32 0.00 63 1016.3
20260510122321 44 304 1.7 5.2 0.00 0.32 0.00 63 1016.3
20260510122244 44 266 1.7 5.2 0.00 0.32 0.00 64 1016.3
20260510122216 44 50 2.6 5.2 0.00 0.32 0.00 64 1016.3
20260510122112 44 331 1.7 5.2 0.00 0.32 0.00 64 1015.9
20260510122004 44 357 3.5 5.2 0.00 0.32 0.00 65 1016.3
20260510121858 44 325 1.7 5.2 0.00 0.32 0.00 65 1015.9
20260510121754 44 312 0.9 3.5 0.00 0.32 0.00 65 1015.9
20260510121738 44 243 1.7 3.5 0.00 0.32 0.00 66 1016.3
20260510121647 44 334 0.0 3.5 0.00 0.32 0.00 66 1016.3
20260510121540 44 334 0.0 3.5 0.00 0.32 0.00 66 1016.3
20260510121435 44 287 2.6 3.5 0.00 0.32 0.00 66 1015.9
20260510121329 44 330 0.9 3.5 0.00 0.32 0.00 67 1015.9
20260510121230 44 60 0.0 3.5 0.00 0.32 0.00 67 1016.3
20260510121224 44 59 0.0 3.5 0.00 0.32 0.00 67 1016.3
20260510121118 44 313 1.7 3.5 0.00 0.32 0.00 67 1015.9
20260510121012 44 211 1.7 3.5 0.00 0.32 0.00 67 1016.3
20260510120907 43 13 1.7 2.6 0.00 0.32 0.00 68 1015.9
20260510120802 43 282 0.9 2.6 0.00 0.32 0.00 68 1015.9
20260510120724 43 258 0.9 2.6 0.00 0.32 0.00 68 1016.3
20260510120655 43 259 2.6 2.6 0.00 0.32 0.00 68 1016.3
20260510120549 43 27 0.0 2.6 0.00 0.32 0.00 69 1015.9
20260510120445 43 45 0.9 3.5 0.00 0.32 0.00 68 1015.9
20260510120339 43 350 1.7 3.5 0.00 0.32 0.00 69 1015.9
20260510120233 43 341 0.9 3.5 0.00 0.32 0.00 69 1015.9
20260510120217 43 1 0.0 3.5 0.00 0.32 0.00 69 1015.9
20260510120124 43 346 0.9 3.5 0.00 0.32 0.00 69 1015.9
20260510120019 43 326 0.9 3.5 0.00 0.32 0.00 69 1015.9
20260510115913 43 328 0.9 3.5 0.00 0.32 0.00 70 1015.9
20260510115806 43 334 0.9 3.5 0.00 0.32 0.00 68 1015.9
20260510115756 42 302 1.7 5.2 0.00 0.32 0.00 70 1015.9
20260510115752 41 327 1.7 6.1 0.00 0.32 0.00 71 1015.9
20260510115747 41 328 0.9 2.6 0.00 0.32 0.00 72 1015.9
20260510115743 40 327 2.6 2.6 0.00 0.32 0.00 73 1015.3
20260510115737 43 2 1.7 3.5 0.00 0.32 0.00 69 1015.9
20260510115733 43 331 0.9 3.5 0.00 0.32 0.00 69 1015.9
20260510115724 43 343 3.5 3.5 0.00 0.32 0.00 69 1015.9
20260510115503 42 341 1.7 5.2 0.00 0.32 0.00 69 1015.9
20260510115458 43 340 0.9 3.5 0.00 0.32 0.00 69 1015.9
20260510115450 42 319 1.7 3.5 0.00 0.32 0.00 69 1015.9
20260510115441 42 351 1.7 5.2 0.00 0.32 0.00 69 1015.9
20260510115220 42 320 1.7 5.2 0.00 0.32 0.00 69 1015.6
20260510115212 42 324 2.6 5.2 0.00 0.32 0.00 70 1015.9
20260510114948 42 350 2.6 5.2 0.00 0.32 0.00 70 1015.9
20260510114939 42 5 0.9 5.2 0.00 0.32 0.00 70 1015.9
20260510114929 42 302 1.7 5.2 0.00 0.32 0.00 70 1015.9
20260510114708 42 350 2.6 5.2 0.00 0.32 0.00 70 1015.9
20260510114659 42 350 1.7 5.2 0.00 0.32 0.00 70 1015.9
20260510114440 41 323 1.7 5.2 0.00 0.32 0.00 72 1015.9
20260510114435 41 330 2.6 5.2 0.00 0.32 0.00 71 1015.6
20260510114427 41 336 2.6 5.2 0.00 0.32 0.00 72 1015.9
20260510114206 41 329 1.7 5.2 0.00 0.32 0.00 72 1015.6
20260510114157 41 315 0.0 5.2 0.00 0.32 0.00 71 1015.6
20260510113934 41 324 1.7 5.2 0.00 0.32 0.00 71 1015.9
20260510113924 41 347 1.7 5.2 0.00 0.32 0.00 71 1015.6
20260510113915 41 340 1.7 6.1 0.00 0.32 0.00 71 1015.9
20260510113654 41 309 0.9 6.1 0.00 0.32 0.00 71 1015.6
20260510113645 41 332 1.7 6.1 0.00 0.32 0.00 71 1015.6
20260510113426 41 345 2.6 6.1 0.00 0.32 0.00 72 1015.6
20260510113422 41 1 3.5 6.1 0.00 0.32 0.00 71 1015.9
20260510113413 41 346 2.6 6.1 0.00 0.32 0.00 72 1015.9
20260510113151 41 345 1.7 6.1 0.00 0.32 0.00 72 1015.6
20260510113143 41 357 1.7 6.1 0.00 0.32 0.00 72 1015.9
20260510112923 41 343 1.7 6.1 0.00 0.32 0.00 72 1015.6
20260510112915 41 331 1.7 3.5 0.00 0.32 0.00 72 1015.9
20260510112906 41 328 0.0 2.6 0.00 0.32 0.00 72 1015.6
20260510112644 41 323 1.7 2.6 0.00 0.32 0.00 72 1015.9
20260510112636 41 338 1.7 2.6 0.00 0.32 0.00 73 1015.6
20260510112411 40 323 1.7 2.6 0.00 0.32 0.00 73 1015.6
20260510112403 40 326 1.7 2.6 0.00 0.32 0.00 73 1015.6
20260510112352 40 342 0.9 2.6 0.00 0.32 0.00 73 1015.3
20260510112127 40 326 1.7 2.6 0.00 0.32 0.00 73 1015.3
20260510112118 40 326 1.7 2.6 0.00 0.32 0.00 73 1015.6
20260510111855 40 328 1.7 2.6 0.00 0.32 0.00 73 1015.3
20260510111846 40 303 0.9 2.6 0.00 0.32 0.00 73 1015.6
20260510111608 40 310 1.7 2.6 0.00 0.32 0.00 73 1015.3
20260510111504 40 340 0.9 2.6 0.00 0.32 0.00 73 1015.3
20260510111357 40 323 0.9 2.6 0.00 0.32 0.00 74 1015.6
20260510111251 40 327 1.7 2.6 0.00 0.32 0.00 74 1015.3
20260510111158 40 323 1.7 2.6 0.00 0.32 0.00 74 1015.6
20260510111118 40 315 1.7 2.6 0.00 0.32 0.00 74 1015.6
20260510111040 40 324 0.9 2.6 0.00 0.32 0.00 74 1015.6
20260510110934 40 324 0.9 2.6 0.00 0.32 0.00 75 1015.3
20260510110828 40 328 0.0 2.6 0.00 0.32 0.00 75 1015.3
20260510110722 40 328 0.9 2.6 0.00 0.32 0.00 75 1015.3
20260510110616 40 325 0.9 2.6 0.00 0.32 0.00 75 1015.3
20260510110511 40 339 1.7 2.6 0.00 0.32 0.00 75 1015.3
20260510110417 40 335 1.7 2.6 0.00 0.32 0.00 75 1015.6
20260510110259 40 330 0.9 2.6 0.00 0.32 0.00 75 1015.3
20260510110154 40 330 0.9 2.6 0.00 0.32 0.00 75 1015.3
20260510110104 39 355 0.9 2.6 0.00 0.32 0.00 75 1015.3
20260510110101 39 324 0.9 2.6 0.00 0.32 0.00 75 1015.3
20260510105942 39 326 1.7 2.6 0.00 0.32 0.00 76 1015.3
20260510105836 39 321 0.9 2.6 0.00 0.32 0.00 76 1015.3
20260510105731 39 320 0.9 2.6 0.00 0.32 0.00 76 1015.3
20260510105626 39 331 1.7 2.6 0.00 0.32 0.00 76 1015.3
20260510105558 39 320 1.7 2.6 0.00 0.32 0.00 76 1015.3
20260510105519 39 326 0.9 2.6 0.00 0.32 0.00 76 1015.3
20260510105413 39 323 0.9 2.6 0.00 0.32 0.00 76 1015.3
20260510105308 39 327 0.9 2.6 0.00 0.32 0.00 77 1015.3
20260510105203 39 315 0.0 2.6 0.00 0.32 0.00 77 1015.3
20260510105056 39 320 0.9 2.6 0.00 0.32 0.00 77 1015.3
20260510104951 39 320 0.0 2.6 0.00 0.32 0.00 77 1014.9
20260510104845 39 320 0.9 2.6 0.00 0.32 0.00 77 1014.9
20260510104739 39 324 0.9 2.6 0.00 0.32 0.00 76 1014.9
20260510104633 39 318 0.9 2.6 0.00 0.32 0.00 77 1014.9
20260510104545 39 350 1.7 2.6 0.00 0.32 0.00 77 1014.9
20260510104528 39 316 1.7 1.7 0.00 0.32 0.00 77 1014.9
20260510104422 39 313 0.9 1.7 0.00 0.32 0.00 77 1015.3
20260510104316 39 319 0.9 1.7 0.00 0.32 0.00 77 1015.3
20260510104211 39 347 1.7 1.7 0.00 0.32 0.00 77 1014.9
20260510104106 39 316 0.9 1.7 0.00 0.32 0.00 78 1015.3
20260510104039 39 312 0.9 1.7 0.00 0.32 0.00 78 1014.9
20260510103959 39 316 1.7 1.7 0.00 0.32 0.00 78 1014.9
20260510103854 39 317 0.0 1.7 0.00 0.32 0.00 78 1014.9
20260510103748 39 319 0.9 2.6 0.00 0.32 0.00 78 1014.9
20260510103643 39 320 0.9 2.6 0.00 0.32 0.00 79 1014.9
20260510103536 39 312 0.0 2.6 0.00 0.32 0.00 78 1014.9
20260510103432 39 312 0.0 2.6 0.00 0.32 0.00 78 1015.3
20260510103326 39 312 0.0 2.6 0.00 0.32 0.00 78 1014.9
20260510103220 39 313 0.9 2.6 0.00 0.32 0.00 78 1014.9
20260510103114 39 316 0.0 2.6 0.00 0.32 0.00 78 1014.9
20260510103026 39 317 0.9 2.6 0.00 0.32 0.00 78 1014.9
20260510103008 39 317 0.0 2.6 0.00 0.32 0.00 78 1014.9
20260510102902 39 330 1.7 2.6 0.00 0.32 0.00 78 1015.3
20260510102756 39 314 0.9 1.7 0.00 0.32 0.00 78 1014.9
20260510102650 39 313 0.9 1.7 0.00 0.32 0.00 78 1014.9
20260510102544 39 309 0.9 0.9 0.00 0.32 0.00 78 1014.9
20260510102516 39 309 0.9 0.9 0.00 0.32 0.00 78 1014.9
20260510102438 39 309 0.9 0.9 0.00 0.32 0.00 78 1014.9
20260510102332 39 309 0.9 0.9 0.00 0.32 0.00 78 1014.9
20260510102227 39 309 0.9 0.9 0.00 0.32 0.00 78 1014.9
20260510102121 39 310 0.9 0.9 0.00 0.32 0.00 78 1014.9
20260510102014 39 310 0.0 0.9 0.00 0.32 0.00 78 1014.6
20260510101910 39 310 0.0 0.9 0.00 0.32 0.00 78 1014.9
20260510101804 39 313 0.0 0.9 0.00 0.32 0.00 78 1014.9
20260510101738 39 310 0.0 0.9 0.00 0.32 0.00 77 1014.6
20260510101734 39 310 0.9 0.9 0.00 0.32 0.00 78 1014.9
20260510101725 39 309 0.0 0.9 0.00 0.32 0.00 77 1014.9
20260510101446 39 310 0.9 0.9 0.00 0.32 0.00 77 1014.9
20260510101340 39 310 0.9 1.7 0.00 0.32 0.00 77 1014.9
20260510101239 39 312 0.0 1.7 0.00 0.32 0.00 77 1014.6
20260510101235 39 312 0.0 1.7 0.00 0.32 0.00 77 1014.9
20260510101226 39 311 0.9 1.7 0.00 0.32 0.00 77 1014.6
20260510101218 39 312 0.9 1.7 0.00 0.32 0.00 77 1014.6
20260510100918 40 317 0.9 1.7 0.00 0.32 0.00 77 1014.9
20260510100811 40 306 0.9 1.7 0.00 0.32 0.00 77 1014.6
20260510100729 40 311 0.9 1.7 0.00 0.32 0.00 76 1014.6
20260510100720 40 316 0.9 1.7 0.00 0.32 0.00 76 1014.6
20260510100710 40 317 0.9 1.7 0.00 0.32 0.00 76 1014.6
20260510100349 40 311 0.9 1.7 0.00 0.32 0.00 76 1014.6
20260510100243 40 321 1.7 1.7 0.00 0.32 0.00 77 1014.6
20260510100137 39 321 0.9 1.7 0.00 0.32 0.00 77 1014.6
20260510100032 39 323 0.9 1.7 0.00 0.32 0.00 77 1014.6
20260510095944 39 331 1.7 1.7 0.00 0.32 0.00 78 1014.2
20260510095927 39 330 0.9 3.5 0.00 0.32 0.00 78 1014.2
20260510095821 39 337 1.7 3.5 0.00 0.32 0.00 79 1014.6
20260510095715 39 7 0.0 3.5 0.00 0.32 0.00 79 1014.2
20260510095610 39 13 0.9 3.5 0.00 0.32 0.00 78 1014.9
20260510095504 39 13 0.0 3.5 0.00 0.32 0.00 78 1014.2
20260510095438 39 13 0.0 3.5 0.00 0.32 0.00 78 1014.6
20260510095358 39 13 0.0 3.5 0.00 0.32 0.00 78 1014.6
20260510095252 39 13 0.0 3.5 0.00 0.32 0.00 78 1014.6
20260510095146 39 13 0.0 3.5 0.00 0.32 0.00 78 1014.2
20260510095043 39 13 0.0 3.5 0.00 0.32 0.00 78 1014.2
20260510094934 39 303 0.0 0.9 0.00 0.32 0.00 78 1014.2
20260510094829 39 298 0.9 0.9 0.00 0.32 0.00 78 1014.2
20260510094723 39 297 0.0 1.7 0.00 0.32 0.00 79 1014.2
20260510094618 39 309 0.9 1.7 0.00 0.32 0.00 79 1014.2
20260510094513 39 314 0.9 1.7 0.00 0.32 0.00 79 1014.6
20260510094425 39 307 0.9 1.7 0.00 0.32 0.00 79 1014.2
20260510094406 39 307 0.0 1.7 0.00 0.32 0.00 78 1014.2
20260510094300 39 307 0.0 1.7 0.00 0.32 0.00 78 1014.2
20260510094156 39 307 0.0 1.7 0.00 0.32 0.00 78 1014.2
20260510094050 39 307 0.0 1.7 0.00 0.32 0.00 78 1014.2
20260510093917 39 307 0.0 1.7 0.00 0.32 0.00 78 1014.2
20260510093838 39 308 0.9 1.7 0.00 0.32 0.00 78 1014.2
20260510093732 39 313 0.0 1.7 0.00 0.32 0.00 78 1014.2
20260510093626 39 313 0.0 1.7 0.00 0.32 0.00 78 1013.9
20260510093522 39 313 0.9 1.7 0.00 0.32 0.00 78 1014.2
20260510093415 39 313 0.0 1.7 0.00 0.32 0.00 78 1014.2
20260510093321 39 321 0.0 1.7 0.00 0.32 0.00 79 1014.2
20260510093216 39 321 0.0 1.7 0.00 0.32 0.00 78 1013.9
20260510093110 39 321 0.0 1.7 0.00 0.32 0.00 78 1014.2
20260510093005 39 321 0.9 1.7 0.00 0.32 0.00 79 1013.9
20260510092916 39 337 0.0 0.9 0.00 0.32 0.00 79 1013.9
20260510092858 39 337 0.0 0.9 0.00 0.32 0.00 79 1013.9
20260510092752 39 337 0.0 0.9 0.00 0.32 0.00 79 1014.2
20260510092647 39 337 0.0 0.9 0.00 0.32 0.00 79 1014.2
20260510092542 39 337 0.0 0.9 0.00 0.32 0.00 79 1013.9
20260510092436 39 337 0.0 0.9 0.00 0.32 0.00 79 1014.2
20260510092409 39 337 0.0 0.9 0.00 0.32 0.00 80 1014.2
20260510092330 38 337 0.0 0.9 0.00 0.32 0.00 80 1013.9
20260510092224 39 337 0.0 0.9 0.00 0.32 0.00 79 1013.9
20260510092117 39 337 0.0 0.9 0.00 0.32 0.00 80 1014.2
20260510092011 39 337 0.0 0.9 0.00 0.32 0.00 80 1013.9
20260510091905 39 337 0.0 0.9 0.00 0.32 0.00 80 1013.9
20260510091759 39 337 0.0 0.9 0.00 0.32 0.00 80 1013.9
20260510091654 39 337 0.0 0.9 0.00 0.32 0.00 80 1013.9
20260510091549 39 337 0.0 0.9 0.00 0.32 0.00 80 1013.9
20260510091443 39 338 0.0 0.9 0.00 0.32 0.00 79 1013.9
20260510091337 39 339 0.0 0.9 0.00 0.32 0.00 79 1013.9
20260510091232 39 339 0.0 0.9 0.00 0.32 0.00 79 1013.5
20260510091126 39 339 0.0 0.9 0.00 0.32 0.00 78 1013.9
20260510091020 39 339 0.0 0.9 0.00 0.32 0.00 78 1013.5
20260510090914 39 339 0.0 0.9 0.00 0.32 0.00 78 1013.9
20260510090848 39 339 0.0 0.9 0.00 0.32 0.00 78 1013.9
20260510090808 39 339 0.0 0.9 0.00 0.32 0.00 78 1013.9
20260510090703 39 339 0.0 0.9 0.00 0.32 0.00 78 1013.5
20260510090556 39 339 0.9 0.9 0.00 0.32 0.00 78 1013.5
20260510090451 39 339 0.0 0.9 0.00 0.32 0.00 78 1013.5
20260510090345 39 339 0.0 0.9 0.00 0.32 0.00 78 1013.9
20260510090240 39 339 0.0 0.9 0.00 0.32 0.00 78 1013.9
20260510090134 39 339 0.0 1.7 0.00 0.32 0.00 78 1013.5
20260510090120 40 341 0.0 1.7 0.00 0.32 0.00 78 1013.5
20260510090116 40 341 0.0 1.7 0.00 0.32 0.00 78 1013.9
20260510090105 40 341 0.0 1.7 0.00 0.32 0.00 78 1013.5
20260510085816 40 341 0.0 1.7 0.00 0.32 0.00 78 1013.5
20260510085711 40 341 0.9 1.7 0.00 0.32 0.00 78 1013.5
20260510085605 40 345 0.0 1.7 0.00 0.32 0.00 78 1013.5
20260510085500 40 345 0.0 1.7 0.00 0.32 0.00 78 1013.5
20260510085354 40 345 0.0 1.7 0.00 0.32 0.00 78 1013.5
20260510085327 40 346 0.0 1.7 0.00 0.32 0.00 78 1013.5
20260510085248 40 345 0.0 1.7 0.00 0.32 0.00 78 1013.5
20260510085140 40 359 0.0 1.7 0.00 0.32 0.00 78 1013.5
20260510085034 40 2 0.9 1.7 0.00 0.32 0.00 78 1013.5
20260510084929 40 2 0.0 1.7 0.00 0.32 0.00 78 1013.5
20260510084823 40 2 0.0 1.7 0.00 0.32 0.00 78 1013.5
20260510084718 40 2 0.0 1.7 0.00 0.32 0.00 78 1013.5
20260510084612 40 2 0.0 1.7 0.00 0.32 0.00 77 1013.5
20260510084507 40 2 0.0 1.7 0.00 0.32 0.00 77 1013.5
20260510084401 40 4 0.0 1.7 0.00 0.32 0.00 78 1013.1
20260510084313 40 3 0.0 1.7 0.00 0.32 0.00 78 1013.1
20260510084255 40 4 0.0 1.7 0.00 0.32 0.00 78 1013.1
20260510084149 40 282 0.9 1.7 0.00 0.32 0.00 78 1013.5
20260510084045 40 8 0.0 0.9 0.00 0.32 0.00 78 1013.1
20260510083938 40 8 0.9 0.9 0.00 0.32 0.00 78 1013.5
20260510083832 40 16 0.0 0.9 0.00 0.32 0.00 79 1013.1
20260510083806 40 16 0.0 0.9 0.00 0.32 0.00 79 1013.1
20260510083727 40 16 0.0 0.9 0.00 0.32 0.00 78 1013.1
20260510083622 40 22 0.0 0.9 0.00 0.32 0.00 78 1013.1
20260510083516 40 22 0.0 0.9 0.00 0.32 0.00 78 1012.8
20260510083410 40 19 0.0 0.9 0.00 0.32 0.00 78 1013.1
20260510083305 40 19 0.0 0.9 0.00 0.32 0.00 77 1013.1
20260510083159 40 19 0.0 0.9 0.00 0.32 0.00 77 1013.1
20260510083054 40 25 0.0 0.9 0.00 0.32 0.00 78 1013.1
20260510082948 40 25 0.0 0.9 0.00 0.32 0.00 77 1012.8
20260510082842 40 25 0.0 0.0 0.00 0.32 0.00 77 1013.1
20260510082753 40 25 0.0 0.9 0.00 0.32 0.00 77 1013.1
20260510082737 40 25 0.0 0.9 0.00 0.32 0.00 77 1012.8
20260510082631 40 26 0.0 0.9 0.00 0.32 0.00 76 1012.8
20260510082513 40 26 0.0 0.9 0.00 0.32 0.00 76 1012.8
20260510082408 40 26 0.0 0.9 0.00 0.32 0.00 76 1013.1
20260510082306 40 26 0.0 0.9 0.00 0.32 0.00 75 1013.1
20260510082236 40 26 0.0 0.9 0.00 0.32 0.00 76 1012.8
20260510082157 40 26 0.0 0.9 0.00 0.32 0.00 76 1012.8
20260510082050 40 26 0.0 0.9 0.00 0.32 0.00 76 1012.8
20260510081947 41 26 0.0 0.9 0.00 0.32 0.00 76 1012.8
20260510081839 41 26 0.0 0.9 0.00 0.32 0.00 76 1012.8
20260510081733 41 23 0.0 0.9 0.00 0.32 0.00 76 1012.8
20260510081627 41 23 0.0 0.9 0.00 0.32 0.00 75 1012.8
20260510081523 41 23 0.0 0.9 0.00 0.32 0.00 75 1012.4
20260510081417 41 23 0.0 0.9 0.00 0.32 0.00 75 1012.4
20260510081311 41 23 0.0 0.9 0.00 0.32 0.00 75 1012.4
20260510081223 41 23 0.9 0.9 0.00 0.32 0.00 75 1012.8
20260510081205 41 24 0.9 0.9 0.00 0.32 0.00 75 1012.8
20260510081059 41 24 0.9 0.9 0.00 0.32 0.00 75 1012.4
20260510080953 41 24 0.0 0.9 0.00 0.32 0.00 75 1012.4
20260510080848 41 26 0.9 0.9 0.00 0.32 0.00 75 1012.4
20260510080715 41 26 0.9 0.9 0.00 0.32 0.00 75 1012.4
20260510080636 41 34 0.0 0.9 0.00 0.32 0.00 75 1012.8
20260510080531 41 34 0.0 0.9 0.00 0.32 0.00 75 1012.4
20260510080425 41 34 0.0 0.0 0.00 0.32 0.00 74 1012.4
20260510080319 41 34 0.0 0.0 0.00 0.32 0.00 74 1012.4
20260510080215 41 34 0.0 0.0 0.00 0.32 0.00 74 1012.8
20260510080108 41 34 0.0 0.0 0.00 0.32 0.00 74 1012.4
20260510080004 41 34 0.0 0.9 0.00 0.32 0.00 74 1012.4
20260510075856 41 34 0.0 0.9 0.00 0.32 0.00 74 1012.4
20260510075750 41 34 0.0 0.9 0.00 0.32 0.00 73 1012.4
20260510075702 41 34 0.0 0.9 0.00 0.32 0.00 73 1012.4
20260510075645 41 34 0.0 0.9 0.00 0.32 0.00 73 1012.4
20260510075539 41 34 0.0 0.9 0.00 0.32 0.00 73 1012.4
20260510075433 42 34 0.0 0.9 0.00 0.32 0.00 73 1012.4
20260510075327 42 34 0.0 0.9 0.00 0.32 0.00 73 1012.4
20260510075222 42 34 0.0 0.9 0.00 0.32 0.00 73 1012.4
20260510075155 42 35 0.0 0.9 0.00 0.32 0.00 73 1012.4
20260510075116 42 35 0.0 0.9 0.00 0.32 0.00 74 1012.4
20260510075011 42 35 0.0 0.9 0.00 0.32 0.00 74 1012.4
20260510074906 42 32 0.0 0.9 0.00 0.32 0.00 74 1012.1
20260510074759 42 32 0.0 1.7 0.00 0.32 0.00 73 1012.1
20260510074653 43 32 0.0 1.7 0.00 0.32 0.00 73 1012.1
20260510074548 43 32 0.0 1.7 0.00 0.32 0.00 72 1012.1
20260510074442 44 31 0.0 1.7 0.00 0.32 0.00 71 1012.4
20260510074327 44 342 0.0 1.7 0.00 0.32 0.00 69 1012.4
20260510074221 44 339 0.0 1.7 0.00 0.32 0.00 69 1012.1
20260510074144 44 338 0.0 1.7 0.00 0.32 0.00 68 1012.1
20260510074116 44 337 0.0 1.7 0.00 0.32 0.00 68 1012.1
20260510074010 44 336 0.9 1.7 0.00 0.32 0.00 68 1012.1
20260510073904 44 340 0.9 1.7 0.00 0.32 0.00 68 1012.4
20260510073759 44 341 0.9 1.7 0.00 0.32 0.00 68 1012.1
20260510073654 44 342 0.9 1.7 0.00 0.32 0.00 68 1012.1
20260510073637 44 343 0.9 1.7 0.00 0.32 0.00 68 1011.8
20260510073547 44 349 0.9 1.7 0.00 0.32 0.00 68 1011.8
20260510073441 44 349 0.9 1.7 0.00 0.32 0.00 68 1012.1
20260510073335 44 359 0.9 1.7 0.00 0.32 0.00 68 1012.1
20260510073231 44 358 0.9 1.7 0.00 0.32 0.00 68 1012.1
20260510073131 44 356 0.0 1.7 0.00 0.32 0.00 68 1012.1
20260510073125 44 28 0.0 1.7 0.00 0.32 0.00 68 1012.1
20260510073019 44 351 0.0 1.7 0.00 0.32 0.00 67 1012.1
20260510072914 44 341 0.9 1.7 0.00 0.32 0.00 67 1011.8
20260510072808 44 359 0.0 1.7 0.00 0.32 0.00 67 1011.8
20260510072702 44 327 0.9 1.7 0.00 0.32 0.00 67 1011.8
20260510072625 44 336 1.7 1.7 0.00 0.32 0.00 67 1012.1
20260510072556 44 339 0.9 1.7 0.00 0.32 0.00 67 1012.1
20260510072451 44 325 0.9 1.7 0.00 0.32 0.00 67 1011.8
20260510072346 45 328 0.0 1.7 0.00 0.32 0.00 66 1011.8
20260510072240 45 334 0.9 1.7 0.00 0.32 0.00 67 1011.8
20260510072118 44 334 0.0 1.7 0.00 0.32 0.00 66 1012.1
20260510072028 44 335 1.7 1.7 0.00 0.32 0.00 67 1011.8
20260510071923 44 338 0.0 1.7 0.00 0.32 0.00 67 1011.8
20260510071817 44 333 0.9 1.7 0.00 0.32 0.00 67 1011.8
20260510071712 44 337 0.9 1.7 0.00 0.32 0.00 67 1011.8
20260510071611 44 341 0.9 1.7 0.00 0.32 0.00 67 1011.8
20260510071606 44 341 0.9 1.7 0.00 0.32 0.00 67 1011.8
20260510071459 44 342 0.9 1.7 0.00 0.32 0.00 67 1011.8
20260510071354 44 343 1.7 1.7 0.00 0.32 0.00 67 1011.8
20260510071247 44 354 0.9 1.7 0.00 0.32 0.00 67 1011.8
20260510071143 44 16 0.9 1.7 0.00 0.32 0.00 67 1011.8
20260510071105 45 18 0.9 1.7 0.00 0.32 0.00 67 1011.8
20260510071037 45 27 0.0 1.7 0.00 0.32 0.00 67 1011.8
20260510070932 45 28 0.9 1.7 0.00 0.32 0.00 67 1011.8
20260510070824 45 30 0.9 1.7 0.00 0.32 0.00 66 1011.8
20260510070720 45 25 0.9 1.7 0.00 0.32 0.00 66 1011.8
20260510070614 45 27 0.9 1.7 0.00 0.32 0.00 67 1011.8
20260510070558 45 27 0.9 1.7 0.00 0.32 0.00 67 1011.8
20260510070509 45 29 0.0 1.7 0.00 0.32 0.00 67 1011.8
20260510070402 45 29 0.9 1.7 0.00 0.32 0.00 66 1011.8
20260510070258 45 2 1.7 1.7 0.00 0.32 0.00 65 1011.8
20260510070151 45 21 0.0 1.7 0.00 0.32 0.00 65 1011.8
20260510070058 45 22 0.9 1.7 0.00 0.32 0.00 65 1011.4
20260510065939 45 359 0.9 1.7 0.00 0.32 0.00 66 1011.8
20260510065834 45 20 0.9 1.7 0.00 0.32 0.00 65 1011.8
20260510065728 45 22 0.9 1.7 0.00 0.32 0.00 65 1011.8
20260510065622 45 10 0.9 2.6 0.00 0.32 0.00 65 1011.8
20260510065545 45 5 0.9 2.6 0.00 0.32 0.00 65 1011.8
20260510065516 45 20 1.7 2.6 0.00 0.32 0.00 65 1011.8
20260510065410 46 342 0.9 2.6 0.00 0.32 0.00 65 1011.8
20260510065306 46 353 0.9 2.6 0.00 0.32 0.00 65 1011.8
20260510065200 46 350 0.9 2.6 0.00 0.32 0.00 65 1011.8
20260510065055 46 352 0.9 2.6 0.00 0.32 0.00 65 1011.8
20260510065038 46 352 0.9 2.6 0.00 0.32 0.00 65 1011.4
20260510064948 46 36 0.0 2.6 0.00 0.32 0.00 64 1011.8
20260510064843 46 23 0.9 2.6 0.00 0.32 0.00 65 1011.8
20260510064737 46 26 0.9 2.6 0.00 0.32 0.00 64 1011.8
20260510064631 46 355 0.9 1.7 0.00 0.32 0.00 65 1011.4
20260510064525 46 14 0.0 1.7 0.00 0.32 0.00 64 1011.4
20260510064420 46 18 0.9 1.7 0.00 0.32 0.00 64 1011.4
20260510064315 46 330 0.9 1.7 0.00 0.32 0.00 63 1011.4
20260510064208 46 322 0.9 1.7 0.00 0.32 0.00 63 1011.4
20260510064104 46 44 1.7 1.7 0.00 0.32 0.00 63 1011.4
20260510064025 46 34 0.0 1.7 0.00 0.32 0.00 63 1011.4
20260510063958 46 13 0.9 1.7 0.00 0.32 0.00 63 1011.4
20260510063852 46 352 1.7 2.6 0.00 0.32 0.00 63 1011.4
20260510063747 46 30 0.9 2.6 0.00 0.32 0.00 63 1011.4
20260510063640 46 27 0.9 2.6 0.00 0.32 0.00 64 1011.4
20260510063536 47 351 0.9 2.6 0.00 0.32 0.00 63 1011.1
20260510063519 47 357 0.9 2.6 0.00 0.32 0.00 63 1011.1
20260510063430 47 20 0.0 2.6 0.00 0.32 0.00 63 1011.1
20260510063324 47 33 0.9 2.6 0.00 0.32 0.00 63 1011.4
20260510063220 47 321 0.9 2.6 0.00 0.32 0.00 63 1011.1
20260510063113 47 354 0.0 2.6 0.00 0.32 0.00 64 1011.1
20260510063012 47 354 0.9 2.6 0.00 0.32 0.00 63 1011.1
20260510063006 47 346 0.9 3.5 0.00 0.32 0.00 63 1011.1
20260510062900 47 354 0.9 5.2 0.00 0.32 0.00 64 1011.4
20260510062756 47 337 1.7 5.2 0.00 0.32 0.00 63 1011.4
20260510062649 47 2 0.9 5.2 0.00 0.32 0.00 63 1011.1
20260510062544 47 340 0.9 5.2 0.00 0.32 0.00 63 1011.4
20260510062506 47 355 0.9 5.2 0.00 0.32 0.00 62 1011.4
20260510062437 47 7 1.7 5.2 0.00 0.32 0.00 62 1011.4
20260510062333 47 337 0.9 5.2 0.00 0.32 0.00 63 1011.4
20260510062226 47 334 1.7 5.2 0.00 0.32 0.00 62 1011.4
20260510062120 47 325 1.7 5.2 0.00 0.32 0.00 64 1011.4
20260510062014 47 344 3.5 5.2 0.00 0.32 0.00 64 1011.1
20260510061959 47 344 3.5 5.2 0.00 0.32 0.00 64 1011.1
20260510061911 47 341 1.7 5.2 0.00 0.32 0.00 65 1011.4
20260510061803 48 319 1.7 5.2 0.00 0.32 0.00 65 1011.4
20260510061658 48 337 1.7 5.2 0.00 0.32 0.00 64 1011.4
20260510061552 48 341 0.9 5.2 0.00 0.32 0.00 63 1011.1
20260510061446 48 341 1.7 5.2 0.00 0.32 0.00 63 1011.1
20260510061342 48 358 1.7 5.2 0.00 0.32 0.00 64 1011.1
20260510061235 47 21 2.6 5.2 0.00 0.32 0.00 64 1011.1
20260510061130 47 334 3.5 5.2 0.00 0.32 0.00 65 1011.1
20260510061025 48 47 0.9 3.5 0.00 0.32 0.00 65 1011.1
20260510060947 48 322 1.7 3.5 0.00 0.32 0.00 65 1011.1
20260510060919 48 327 0.9 5.2 0.00 0.32 0.00 65 1011.1
20260510060812 48 35 1.7 5.2 0.00 0.32 0.00 65 1011.1
20260510060707 48 1 1.7 5.2 0.00 0.32 0.00 65 1010.8
20260510060601 48 337 1.7 5.2 0.00 0.32 0.00 64 1011.1
20260510060509 48 42 0.9 5.2 0.00 0.32 0.00 65 1011.1
20260510060439 48 52 0.9 5.2 0.00 0.32 0.00 65 1011.1
20260510060350 48 334 1.7 5.2 0.00 0.32 0.00 65 1011.1
20260510060244 48 43 1.7 5.2 0.00 0.32 0.00 63 1010.8
20260510060138 48 102 2.6 5.2 0.00 0.32 0.00 64 1010.8
20260510060034 48 298 2.6 5.2 0.00 0.32 0.00 64 1011.1
20260510055934 48 12 2.6 5.2 0.00 0.32 0.00 64 1011.1
20260510055927 48 335 1.7 5.2 0.00 0.32 0.00 64 1011.1
20260510055822 48 327 2.6 5.2 0.00 0.32 0.00 64 1011.1
20260510055716 48 8 0.9 5.2 0.00 0.32 0.00 64 1011.1
20260510055611 48 324 1.7 5.2 0.00 0.32 0.00 65 1010.8
20260510055505 48 35 1.7 5.2 0.00 0.32 0.00 64 1010.8
20260510055427 48 335 0.9 5.2 0.00 0.32 0.00 64 1010.8
20260510055400 48 315 0.9 5.2 0.00 0.32 0.00 65 1010.8
20260510055254 48 326 1.7 5.2 0.00 0.32 0.00 63 1010.8
20260510055148 48 331 3.5 5.2 0.00 0.32 0.00 65 1010.8
20260510055045 48 336 2.6 2.6 0.00 0.32 0.00 65 1010.8
20260510054919 48 337 0.9 2.6 0.00 0.32 0.00 66 1010.8
20260510054829 48 351 0.9 2.6 0.00 0.32 0.00 65 1010.8
20260510054724 48 349 0.0 2.6 0.00 0.32 0.00 65 1010.8
20260510054618 48 319 0.9 2.6 0.00 0.32 0.00 65 1010.8
20260510054511 48 347 1.7 2.6 0.00 0.32 0.00 65 1010.8
20260510054414 48 343 0.9 2.6 0.00 0.32 0.00 65 1010.8
20260510054406 48 353 1.7 2.6 0.00 0.32 0.00 65 1010.8
20260510054303 48 351 1.7 2.6 0.00 0.32 0.00 64 1010.8
20260510054155 48 355 1.7 2.6 0.00 0.32 0.00 65 1010.8
20260510054050 48 323 1.7 2.6 0.00 0.32 0.00 65 1010.8
20260510053943 48 324 0.9 1.7 0.00 0.32 0.00 65 1010.4
20260510053906 48 330 0.9 1.7 0.00 0.32 0.00 65 1010.4
20260510053838 48 341 1.7 1.7 0.00 0.32 0.00 65 1010.8
20260510053626 48 340 0.9 3.5 0.00 0.32 0.00 66 1010.4
20260510053522 48 341 0.9 3.5 0.00 0.32 0.00 65 1010.4
20260510053420 48 337 0.9 3.5 0.00 0.32 0.00 65 1010.4
20260510053359 48 337 0.9 3.5 0.00 0.32 0.00 65 1010.4
20260510053310 48 341 0.9 3.5 0.00 0.32 0.00 65 1010.4
20260510053204 48 354 0.9 3.5 0.00 0.32 0.00 65 1010.4
20260510053101 48 345 0.0 3.5 0.00 0.32 0.00 65 1010.4
20260510052957 49 348 0.0 3.5 0.00 0.32 0.00 65 1010.4
20260510052851 49 352 0.0 3.5 0.00 0.32 0.00 65 1010.4
20260510052745 49 0 0.9 3.5 0.00 0.32 0.00 65 1010.4
20260510052639 49 46 0.0 2.6 0.00 0.32 0.00 65 1010.4
20260510052534 48 339 0.9 2.6 0.00 0.32 0.00 65 1010.0
20260510052429 48 333 0.9 1.7 0.00 0.32 0.00 65 1010.4
20260510052351 49 344 1.7 1.7 0.00 0.32 0.00 65 1010.4
20260510052217 49 340 0.9 1.7 0.00 0.32 0.00 65 1010.4
20260510052111 49 339 0.9 1.7 0.00 0.32 0.00 65 1010.0
20260510052006 49 353 0.9 1.7 0.00 0.32 0.00 65 1010.0
20260510051901 49 345 0.9 1.7 0.00 0.32 0.00 65 1010.4
20260510051844 49 350 0.9 1.7 0.00 0.32 0.00 65 1010.4
20260510051754 49 339 1.7 1.7 0.00 0.32 0.00 64 1010.4
20260510051648 49 359 0.9 1.7 0.00 0.32 0.00 64 1010.0
20260510051542 49 331 1.7 1.7 0.00 0.32 0.00 64 1010.4
20260510051438 49 318 0.9 2.6 0.00 0.32 0.00 64 1010.4
20260510051338 49 318 0.9 2.6 0.00 0.32 0.00 64 1010.0
20260510051332 49 317 0.0 2.6 0.00 0.32 0.00 64 1010.0
20260510051226 49 318 0.9 2.6 0.00 0.32 0.00 64 1010.4
20260510051119 49 316 1.7 2.6 0.00 0.32 0.00 64 1010.0
20260510051014 49 330 0.9 2.6 0.00 0.32 0.00 64 1010.4
20260510050942 49 24 0.9 5.2 0.00 0.32 0.00 64 1010.0
20260510050938 50 13 0.9 5.2 0.00 0.32 0.00 64 1009.6
20260510050933 49 330 0.9 2.6 0.00 0.32 0.00 64 1010.0
20260510050910 49 331 0.9 2.6 0.00 0.32 0.00 64 1010.0
20260510050906 49 330 0.9 2.6 0.00 0.32 0.00 64 1010.0
20260510050844 49 328 0.9 2.6 0.00 0.32 0.00 63 1010.4
20260510050622 49 328 0.9 2.6 0.00 0.32 0.00 63 1009.6
20260510050612 49 344 0.9 2.6 0.00 0.32 0.00 64 1009.6
20260510050603 49 24 0.9 5.2 0.00 0.32 0.00 64 1010.0
20260510050341 50 341 0.0 5.2 0.00 0.32 0.00 64 1010.0
20260510050332 49 341 0.9 5.2 0.00 0.32 0.00 63 1009.6
20260510050108 49 348 1.7 5.2 0.00 0.32 0.00 64 1010.0
20260510050058 50 343 0.9 5.2 0.00 0.32 0.00 64 1009.6
20260510045808 50 13 0.0 5.2 0.00 0.32 0.00 64 1009.6
20260510045703 50 16 0.9 5.2 0.00 0.32 0.00 64 1009.6
20260510045601 50 357 0.9 2.6 0.00 0.32 0.00 63 1009.6
20260510045557 50 329 1.7 5.2 0.00 0.32 0.00 64 1009.6
20260510045547 50 339 1.7 5.2 0.00 0.32 0.00 63 1009.6
20260510045538 50 357 0.9 2.6 0.00 0.32 0.00 64 1009.6
20260510045240 50 344 0.9 2.6 0.00 0.32 0.00 63 1009.6
20260510045134 50 345 1.7 2.6 0.00 0.32 0.00 63 1010.0
20260510045052 50 332 2.6 2.6 0.00 0.32 0.00 63 1010.0
20260510045043 50 329 1.7 2.6 0.00 0.32 0.00 63 1009.6
20260510045030 50 332 1.7 2.6 0.00 0.32 0.00 63 1009.6
20260510044710 50 329 0.9 2.6 0.00 0.32 0.00 63 1009.6
20260510044606 50 34 1.7 2.6 0.00 0.32 0.00 63 1009.6
20260510044537 51 346 0.9 2.6 0.00 0.32 0.00 63 1009.6
20260510044533 51 357 0.9 2.6 0.00 0.32 0.00 63 1009.6
20260510044524 51 326 0.9 2.6 0.00 0.32 0.00 63 1009.6
20260510044248 51 16 0.9 2.6 0.00 0.32 0.00 63 1009.6
20260510044142 51 333 1.7 2.6 0.00 0.32 0.00 63 1009.6
20260510044038 51 342 0.9 2.6 0.00 0.32 0.00 63 1009.6
20260510044029 51 330 1.7 2.6 0.00 0.32 0.00 63 1009.6
20260510044025 51 358 0.9 2.6 0.00 0.32 0.00 62 1009.6
20260510044016 51 347 1.7 2.6 0.00 0.32 0.00 63 1009.6
20260510043719 51 354 1.7 2.6 0.00 0.32 0.00 64 1009.6
20260510043613 51 331 0.9 2.6 0.00 0.32 0.00 64 1009.6
20260510043528 51 338 0.9 2.6 0.00 0.32 0.00 64 1009.6
20260510043519 51 337 0.9 2.6 0.00 0.32 0.00 63 1009.6
20260510043508 51 337 1.7 2.6 0.00 0.32 0.00 64 1009.6
20260510043153 51 351 1.7 1.7 0.00 0.32 0.00 64 1009.6
20260510043044 51 347 0.9 1.7 0.00 0.32 0.00 64 1009.3
20260510043016 51 338 0.9 1.7 0.00 0.32 0.00 64 1009.3
20260510043012 51 13 1.7 1.7 0.00 0.32 0.00 63 1009.6
20260510043002 51 340 0.9 1.7 0.00 0.32 0.00 64 1009.6
20260510042726 51 334 0.9 1.7 0.00 0.32 0.00 63 1009.3
20260510042621 51 332 0.9 1.7 0.00 0.32 0.00 63 1009.3
20260510042514 51 340 0.9 1.7 0.00 0.32 0.00 64 1009.6
20260510042408 51 339 0.9 1.7 0.00 0.32 0.00 63 1009.3
20260510042306 51 340 0.9 1.7 0.00 0.32 0.00 63 1009.6
20260510042236 51 341 0.9 1.7 0.00 0.32 0.00 64 1009.6
20260510042157 51 359 0.9 3.5 0.00 0.32 0.00 63 1009.6
20260510042052 51 331 0.0 3.5 0.00 0.32 0.00 63 1009.6
20260510041947 51 329 0.9 3.5 0.00 0.32 0.00 64 1009.3
20260510041842 51 329 0.0 3.5 0.00 0.32 0.00 64 1009.3
20260510041735 51 329 0.9 3.5 0.00 0.32 0.00 64 1009.3
20260510041630 51 328 0.9 3.5 0.00 0.32 0.00 64 1009.6
20260510041524 51 322 0.9 3.5 0.00 0.32 0.00 64 1009.6
20260510041418 51 322 0.0 3.5 0.00 0.32 0.00 64 1009.3
20260510041312 51 4 0.9 3.5 0.00 0.32 0.00 63 1009.3
20260510041224 51 323 3.5 3.5 0.00 0.32 0.00 64 1009.3
20260510041206 51 353 0.9 2.6 0.00 0.32 0.00 64 1009.3
20260510041100 51 344 0.0 2.6 0.00 0.32 0.00 64 1009.3
20260510040956 51 1 0.9 2.6 0.00 0.32 0.00 65 1009.3
20260510040849 51 348 0.0 2.6 0.00 0.32 0.00 64 1009.3
20260510040743 51 346 1.7 2.6 0.00 0.32 0.00 65 1009.0
20260510040716 51 28 0.9 2.6 0.00 0.32 0.00 64 1009.0
20260510040637 51 36 0.9 2.6 0.00 0.32 0.00 64 1009.0
20260510040531 51 18 0.0 2.6 0.00 0.32 0.00 64 1009.0
20260510040425 51 11 0.9 5.2 0.00 0.32 0.00 64 1009.0
20260510040319 51 32 0.0 5.2 0.00 0.32 0.00 64 1009.0
20260510040213 51 30 0.9 5.2 0.00 0.32 0.00 63 1009.0
20260510040109 51 20 0.9 5.2 0.00 0.32 0.00 64 1009.0
20260510040003 51 32 0.9 5.2 0.00 0.32 0.32 64 1009.3
20260510035856 52 350 0.9 5.2 0.00 0.32 0.32 65 1009.0
20260510035752 52 357 0.9 5.2 0.00 0.32 0.32 64 1009.0
20260510035703 52 351 1.7 5.2 0.00 0.32 0.32 64 1009.0
20260510035646 52 53 0.9 5.2 0.00 0.32 0.32 64 1009.0
20260510035539 52 344 3.5 5.2 0.00 0.32 0.32 64 1009.0
20260510035433 52 343 0.9 5.2 0.00 0.32 0.32 65 1009.0
20260510035327 52 346 0.9 5.2 0.00 0.32 0.32 64 1009.0
20260510035223 52 355 0.9 5.2 0.00 0.32 0.32 64 1009.0
20260510035156 52 355 1.7 5.2 0.00 0.32 0.32 64 1009.0
20260510035116 52 61 0.0 6.1 0.00 0.32 0.32 63 1009.0
20260510035011 52 343 1.7 6.1 0.00 0.32 0.32 65 1009.0
20260510034906 52 10 0.9 6.1 0.00 0.32 0.32 64 1009.0
20260510034800 52 37 0.9 6.1 0.00 0.32 0.32 64 1009.0
20260510034653 52 50 0.9 6.1 0.00 0.32 0.32 64 1009.0
20260510034548 53 337 2.6 6.1 0.00 0.32 0.32 64 1009.0
20260510034442 53 26 0.9 6.1 0.00 0.32 0.32 64 1009.0
20260510034337 53 3 0.9 6.1 0.00 0.32 0.32 64 1009.0
20260510034231 53 327 1.7 6.1 0.00 0.32 0.32 64 1009.0
20260510034125 52 22 1.7 5.2 0.00 0.32 0.32 64 1009.0
20260510034019 53 51 1.7 5.2 0.00 0.32 0.32 65 1009.0
20260510033914 53 356 0.9 5.2 0.00 0.32 0.32 65 1008.6
20260510033809 53 29 0.9 5.2 0.00 0.32 0.32 65 1009.0
20260510033703 53 26 1.7 5.2 0.00 0.32 0.32 65 1009.0
20260510033636 53 56 0.0 5.2 0.00 0.32 0.32 65 1008.6
20260510033556 53 2 0.9 5.2 0.00 0.32 0.32 65 1008.6
20260510033449 53 13 2.6 5.2 0.00 0.32 0.32 65 1008.6
20260510033345 53 35 2.6 5.2 0.00 0.32 0.32 65 1008.6
20260510033239 53 21 0.0 2.6 0.00 0.32 0.32 65 1009.0
20260510033132 53 58 0.9 2.6 0.00 0.32 0.32 65 1008.6
20260510033028 53 55 1.7 3.5 0.00 0.32 0.32 65 1008.6
20260510032922 53 71 1.7 6.1 0.00 0.32 0.32 65 1008.6
20260510032817 53 35 1.7 6.1 0.00 0.32 0.32 65 1008.6
20260510032711 53 351 0.9 6.1 0.00 0.32 0.32 64 1008.6
20260510032622 53 342 1.7 6.1 0.00 0.32 0.32 65 1008.6
20260510032604 53 72 0.9 6.1 0.00 0.32 0.32 65 1008.6
20260510032458 54 352 0.9 6.1 0.00 0.32 0.32 64 1008.6
20260510032354 54 24 0.9 6.1 0.00 0.32 0.32 64 1008.6
20260510032248 54 37 0.0 6.1 0.00 0.32 0.32 63 1008.6
20260510032155 54 348 1.7 6.1 0.00 0.32 0.32 63 1008.3
20260510032116 54 26 0.9 6.1 0.00 0.32 0.32 63 1008.3
20260510032036 54 36 2.6 6.1 0.00 0.32 0.32 63 1008.3
20260510031931 54 20 3.5 6.1 0.00 0.32 0.32 63 1008.6
20260510031826 54 47 2.6 3.5 0.00 0.32 0.32 63 1008.6
20260510031732 54 325 1.7 3.5 0.00 0.32 0.32 62 1008.6
20260510031611 55 53 1.7 5.2 0.00 0.32 0.32 62 1008.3
20260510031505 55 59 1.7 6.1 0.00 0.32 0.32 62 1008.6
20260510031400 55 48 0.9 6.1 0.00 0.32 0.32 61 1008.3
20260510031254 55 32 0.9 6.1 0.00 0.32 0.32 60 1008.3
20260510031148 56 33 0.9 6.1 0.00 0.32 0.32 59 1008.3
20260510031100 56 90 0.9 6.1 0.00 0.32 0.32 58 1008.3
20260510031043 56 63 1.7 6.1 0.00 0.32 0.32 58 1008.3
20260510030937 56 97 1.7 6.1 0.00 0.32 0.32 56 1008.3
20260510030832 56 57 1.7 6.1 0.00 0.32 0.32 54 1008.3
20260510030726 56 28 3.5 6.1 0.00 0.32 0.32 53 1008.3
20260510030620 56 330 3.5 8.7 0.00 0.32 0.32 53 1008.3
20260510030554 56 41 3.5 8.7 0.00 0.32 0.32 53 1008.3
20260510030515 56 2 3.5 8.7 0.00 0.32 0.32 53 1008.3
20260510030456 58 338 4.3 7.8 0.00 0.32 0.32 57 1006.1
20260510030452 56 36 1.7 8.7 0.00 0.32 0.32 54 1008.3
20260510030448 56 340 1.7 8.7 0.00 0.32 0.32 54 1008.3
20260510030439 56 335 0.0 8.7 0.00 0.32 0.32 54 1008.3
20260510030431 56 289 0.9 8.7 0.00 0.32 0.32 54 1008.3
20260510030420 56 36 1.7 8.7 0.00 0.32 0.32 54 1008.3
20260510030156 57 329 3.5 8.7 0.00 0.32 0.32 54 1008.3
20260510025935 58 7 0.9 7.0 0.00 0.32 0.32 51 1006.9
20260510025931 57 271 2.6 8.7 0.00 0.32 0.32 54 1007.9
20260510025922 57 329 5.2 8.7 0.00 0.32 0.32 53 1007.9
20260510025703 57 336 1.7 6.1 0.00 0.32 0.32 53 1007.9
20260510025652 57 4 0.9 6.1 0.00 0.32 0.32 53 1007.9
20260510025648 57 323 1.7 6.1 0.00 0.32 0.32 53 1007.9
20260510025427 57 335 0.9 6.1 0.00 0.32 0.32 53 1008.3
20260510025419 57 343 2.6 6.1 0.00 0.32 0.32 52 1008.3
20260510025410 57 303 2.6 6.1 0.00 0.32 0.32 54 1007.9
20260510025150 57 66 0.9 8.7 0.00 0.32 0.32 53 1007.9
20260510025140 57 274 2.6 8.7 0.00 0.32 0.32 53 1007.9
20260510025136 57 47 0.9 8.7 0.00 0.32 0.32 53 1007.9
20260510024915 59 57 0.9 7.0 0.00 0.32 0.32 50 1006.9
20260510024911 57 343 2.6 8.7 0.00 0.32 0.32 53 1007.9
20260510024902 57 330 0.9 8.7 0.00 0.32 0.32 53 1007.9
20260510024641 58 37 0.9 8.7 0.00 0.32 0.32 52 1007.9
20260510024627 58 314 1.7 8.7 0.00 0.32 0.32 51 1007.9
20260510024618 58 328 1.7 8.7 0.00 0.32 0.32 51 1007.9
20260510024359 58 329 3.5 8.7 0.00 0.32 0.32 51 1007.9
20260510024350 58 344 2.6 8.7 0.00 0.32 0.32 52 1007.9
20260510024130 58 314 3.5 7.8 0.00 0.32 0.32 52 1007.9
20260510024119 58 1 1.7 7.8 0.00 0.32 0.32 52 1007.9
20260510024115 58 353 1.7 7.8 0.00 0.32 0.32 52 1007.9
20260510024107 58 323 2.6 7.8 0.00 0.32 0.32 51 1007.9
20260510023845 58 2 1.7 6.1 0.00 0.32 0.32 52 1007.6
20260510023841 58 325 2.6 6.1 0.00 0.32 0.32 52 1007.9
20260510023833 58 311 1.7 6.1 0.00 0.32 0.32 51 1007.6
20260510023824 58 340 1.7 6.1 0.00 0.32 0.32 52 1007.6
20260510023559 58 333 1.7 6.1 0.00 0.32 0.32 51 1007.6
20260510023337 58 39 1.7 6.1 0.00 0.32 0.32 51 1007.6
20260510023333 58 284 0.9 6.1 0.00 0.32 0.32 51 1007.6
20260510023325 58 330 1.7 6.1 0.00 0.32 0.32 51 1007.6
20260510023316 58 348 0.9 6.1 0.00 0.32 0.32 51 1007.6
20260510023306 58 39 1.7 6.1 0.00 0.32 0.32 51 1007.6
20260510023047 58 30 0.9 6.1 0.00 0.32 0.32 51 1007.6
20260510022826 59 341 1.7 13.0 0.00 0.32 0.32 51 1006.6
20260510022823 58 27 1.7 6.1 0.00 0.32 0.32 51 1007.6
20260510022814 58 4 3.5 6.1 0.00 0.32 0.32 51 1007.6
20260510022552 58 335 1.7 3.5 0.00 0.32 0.32 51 1007.3
20260510022542 58 25 1.7 3.5 0.00 0.32 0.32 51 1007.3
20260510022538 58 3 1.7 3.5 0.00 0.32 0.32 51 1007.3
20260510022529 58 349 0.9 3.5 0.00 0.32 0.32 51 1007.6
20260510022311 58 315 0.9 3.5 0.00 0.32 0.32 51 1007.6
20260510022306 58 321 1.7 3.5 0.00 0.32 0.32 51 1007.6
20260510022041 58 317 0.9 6.1 0.00 0.32 0.32 51 1007.3
20260510022030 58 321 1.7 6.1 0.00 0.32 0.32 50 1007.3
20260510022026 58 344 1.7 6.1 0.00 0.32 0.32 50 1007.3
20260510022017 58 325 0.9 6.1 0.00 0.32 0.32 51 1007.6
20260510021758 58 315 1.7 6.1 0.00 0.32 0.32 50 1007.3
20260510021749 58 353 1.7 6.1 0.00 0.32 0.32 50 1007.3
20260510021523 58 25 1.7 6.1 0.00 0.32 0.32 51 1007.3
20260510021515 58 332 0.9 6.1 0.00 0.32 0.32 50 1007.3
20260510021254 58 32 1.7 6.1 0.00 0.32 0.32 51 1007.3
20260510021245 58 331 2.6 6.1 0.00 0.32 0.32 50 1007.3
20260510021237 58 299 3.5 6.1 0.00 0.32 0.32 50 1007.3
20260510021011 58 328 1.7 5.2 0.00 0.32 0.32 51 1007.3
20260510021007 58 327 1.7 5.2 0.00 0.32 0.32 51 1007.3
20260510020958 58 321 2.6 6.1 0.00 0.32 0.32 51 1007.3
20260510020738 58 322 1.7 6.1 0.00 0.32 0.32 52 1007.3
20260510020730 58 281 0.9 6.1 0.00 0.32 0.32 51 1007.3
20260510020721 58 353 1.7 7.0 0.00 0.32 0.32 51 1007.3
20260510020500 58 318 0.9 7.0 0.00 0.32 0.32 51 1006.9
20260510020451 59 308 1.7 7.0 0.00 0.32 0.32 50 1006.9
20260510020229 59 10 1.7 7.0 0.00 0.32 0.32 51 1006.9
20260510020221 59 339 3.5 7.0 0.00 0.32 0.32 50 1006.9
20260510020157 59 57 0.9 7.0 0.00 0.32 0.32 50 1006.9
20260510015937 59 359 4.3 7.8 0.00 0.32 0.32 50 1006.6
20260510015928 58 8 3.5 7.8 0.00 0.32 0.32 50 1006.6
20260510015705 59 297 3.5 9.6 0.00 0.32 0.32 51 1006.9
20260510015656 59 34 0.9 9.6 0.00 0.32 0.32 51 1006.9
20260510015435 59 72 1.7 13.0 0.00 0.32 0.32 52 1006.6
20260510015426 59 321 2.6 13.0 0.00 0.32 0.32 52 1006.6
20260510015205 59 330 3.5 13.0 0.00 0.32 0.32 51 1006.6
20260510015156 59 63 1.7 13.0 0.00 0.32 0.32 50 1006.1
20260510015147 59 300 4.3 13.0 0.00 0.32 0.32 51 1006.6
20260510014922 59 24 5.2 13.0 0.00 0.32 0.32 52 1006.6
20260510014918 59 346 4.3 13.0 0.00 0.32 0.32 53 1006.6
20260510014909 59 313 4.3 13.0 0.00 0.32 0.32 55 1006.1
20260510014644 59 329 3.5 13.0 0.00 0.32 0.32 58 1006.1
20260510014636 59 59 3.5 13.0 0.00 0.32 0.32 58 1006.1
20260510014625 58 338 4.3 7.8 0.00 0.32 0.32 57 1006.1
20260510014306 58 350 1.7 7.8 0.00 0.32 0.32 58 1006.1
20260510014201 58 318 2.6 3.5 0.00 0.32 0.32 61 1005.8
20260510014054 58 343 0.9 1.7 0.00 0.32 0.32 60 1005.8
20260510013948 58 331 0.9 1.7 0.00 0.32 0.32 59 1005.8
20260510013900 58 319 0.9 1.7 0.00 0.32 0.32 59 1005.8
20260510013843 58 319 1.7 1.7 0.00 0.32 0.32 59 1006.1
20260510013737 58 315 0.0 0.9 0.00 0.32 0.32 59 1006.1
20260510013631 58 323 0.9 1.7 0.00 0.32 0.32 58 1005.8
20260510013525 58 338 0.0 1.7 0.00 0.32 0.32 59 1005.8
20260510013433 58 310 0.0 1.7 0.00 0.32 0.32 59 1005.8
20260510013354 58 310 0.0 1.7 0.00 0.32 0.32 59 1005.8
20260510013314 58 311 0.9 1.7 0.00 0.32 0.32 59 1005.8
20260510013208 59 287 0.0 1.7 0.00 0.32 0.32 58 1005.8
20260510013102 59 286 0.0 1.7 0.00 0.32 0.32 58 1005.8
20260510012958 59 344 0.0 1.7 0.00 0.32 0.32 58 1005.8
20260510012851 59 354 0.9 1.7 0.00 0.32 0.32 57 1005.5
20260510012746 59 26 0.0 1.7 0.00 0.32 0.32 57 1005.5
20260510012640 59 338 0.9 1.7 0.00 0.32 0.32 57 1005.5
20260510012534 59 337 0.0 1.7 0.00 0.32 0.32 58 1005.8
20260510012428 59 337 0.0 1.7 0.00 0.32 0.32 57 1005.5
20260510012341 59 337 0.0 1.7 0.00 0.32 0.32 57 1005.5
20260510012323 59 337 0.9 1.7 0.00 0.32 0.32 57 1005.5
20260510012217 59 337 0.0 1.7 0.00 0.32 0.32 57 1005.5
20260510012111 59 338 0.0 1.7 0.00 0.32 0.32 57 1005.1
20260510012005 58 337 0.9 1.7 0.00 0.32 0.32 57 1005.1
20260510011859 58 327 0.0 0.9 0.00 0.32 0.32 58 1005.5
20260510011834 58 326 0.9 0.9 0.00 0.32 0.32 57 1005.5
20260510011755 59 335 0.9 0.9 0.00 0.32 0.32 58 1005.5
20260510011648 59 334 0.0 0.9 0.00 0.32 0.32 57 1005.5
20260510011543 59 354 0.9 0.9 0.00 0.32 0.32 57 1005.1
20260510011437 59 354 0.0 0.9 0.00 0.32 0.32 57 1005.5
20260510011330 59 354 0.0 0.9 0.00 0.32 0.32 57 1005.1
20260510011225 59 357 0.9 0.9 0.00 0.32 0.32 57 1005.1
20260510011119 59 4 0.9 0.9 0.00 0.32 0.32 57 1005.1
20260510011013 59 354 0.0 0.9 0.00 0.32 0.32 57 1005.1
20260510010907 59 354 0.0 0.9 0.00 0.32 0.32 56 1005.1
20260510010820 59 354 0.0 0.9 0.00 0.32 0.32 56 1005.1
20260510010802 59 354 0.0 0.9 0.00 0.32 0.32 56 1005.1
20260510010656 60 355 0.0 0.9 0.00 0.32 0.32 56 1005.1
20260510010552 60 355 0.0 0.9 0.00 0.32 0.32 55 1005.1
20260510010446 60 355 0.0 0.9 0.00 0.32 0.32 55 1005.1
20260510010340 60 354 0.0 0.9 0.00 0.32 0.32 55 1004.8
20260510010314 60 354 0.0 1.7 0.00 0.32 0.32 55 1004.8
20260510010234 60 355 0.9 1.7 0.00 0.32 0.32 55 1004.8
20260510010141 60 14 0.0 1.7 0.00 0.32 0.32 55 1005.1
20260510010024 60 15 0.0 1.7 0.00 0.32 0.32 55 1004.8
20260510005918 60 19 0.0 1.7 0.00 0.32 0.32 55 1004.8
20260510005811 60 6 0.0 1.7 0.00 0.32 0.32 55 1004.8
20260510005706 60 101 0.0 1.7 0.00 0.32 0.32 54 1005.1
20260510005601 60 8 0.0 2.6 0.00 0.32 0.32 54 1005.1
20260510005455 60 6 0.0 2.6 0.00 0.32 0.32 54 1004.8
20260510005349 60 345 0.9 2.6 0.00 0.32 0.32 54 1004.8
20260510005301 60 310 0.0 2.6 0.00 0.32 0.32 54 1005.1
20260510005244 60 310 0.0 2.6 0.00 0.32 0.32 54 1004.8
20260510005138 60 312 0.9 2.6 0.00 0.32 0.32 54 1004.8
20260510005032 61 306 0.9 2.6 0.00 0.32 0.32 54 1005.1
20260510004926 61 333 0.9 2.6 0.00 0.32 0.32 54 1004.8
20260510004820 61 305 0.0 2.6 0.00 0.32 0.32 54 1004.8
20260510004754 61 315 0.9 2.6 0.00 0.32 0.32 53 1004.8
20260510004715 61 315 0.9 2.6 0.00 0.32 0.32 53 1004.8
20260510004610 61 321 1.7 1.7 0.00 0.32 0.32 53 1004.8
20260510004504 61 316 1.7 1.7 0.00 0.32 0.32 53 1004.5
20260510004358 61 347 0.9 2.6 0.00 0.32 0.32 53 1004.8
20260510004252 61 315 0.0 2.6 0.00 0.32 0.32 54 1004.8
20260510004147 61 315 0.9 2.6 0.00 0.32 0.32 54 1004.8
20260510004040 61 339 0.9 2.6 0.00 0.32 0.32 53 1004.8
20260510003934 61 331 1.7 2.6 0.00 0.32 0.32 53 1004.8
20260510003830 61 355 0.9 2.6 0.00 0.32 0.32 53 1004.5
20260510003741 61 328 0.0 2.6 0.00 0.32 0.32 53 1004.8
20260510003723 61 328 0.0 2.6 0.00 0.32 0.32 53 1004.8
20260510003618 61 329 0.0 2.6 0.00 0.32 0.32 53 1004.5
20260510003513 61 326 0.9 2.6 0.00 0.32 0.32 53 1004.8
20260510003407 61 0 1.7 2.6 0.00 0.32 0.32 53 1004.8
20260510003301 61 306 0.9 2.6 0.00 0.32 0.32 52 1004.5
20260510003234 61 309 0.9 2.6 0.00 0.32 0.32 53 1004.5
20260510003154 61 314 0.9 2.6 0.00 0.32 0.32 52 1004.5
20260510003049 61 315 0.9 2.6 0.00 0.32 0.32 52 1004.5
20260510002943 61 298 0.9 2.6 0.00 0.32 0.32 52 1004.8
20260510002837 61 327 0.0 2.6 0.00 0.32 0.32 52 1004.5
20260510002731 61 306 0.9 2.6 0.00 0.32 0.32 52 1004.5
20260510002626 61 347 0.0 2.6 0.00 0.32 0.32 52 1004.5
20260510002519 61 237 0.9 2.6 0.00 0.32 0.32 52 1004.5
20260510002414 61 276 1.7 2.6 0.00 0.32 0.32 51 1004.5
20260510002308 61 314 0.9 1.7 0.00 0.32 0.32 53 1004.5
20260510002219 61 231 0.9 1.7 0.00 0.32 0.32 52 1004.5
20260510002202 61 301 1.7 1.7 0.00 0.32 0.32 52 1004.5
20260510002055 62 124 0.9 3.5 0.00 0.32 0.32 52 1004.5
20260510001950 62 283 0.0 3.5 0.00 0.32 0.32 52 1004.5
20260510001844 62 308 0.0 3.5 0.00 0.32 0.32 51 1004.5
20260510001739 62 326 0.9 3.5 0.00 0.32 0.32 51 1004.5
20260510001712 62 313 0.9 3.5 0.00 0.32 0.32 51 1004.5
20260510001645 62 251 1.7 3.5 0.00 0.32 0.32 51 1004.5
20260510001526 62 316 0.9 7.0 0.00 0.32 0.32 51 1004.5
20260510001422 62 351 0.0 7.0 0.00 0.32 0.32 52 1004.5
20260510001316 62 339 1.7 7.0 0.00 0.32 0.32 50 1004.5
20260510001209 62 320 1.7 7.0 0.00 0.32 0.32 50 1004.5
20260510001104 62 300 0.9 7.0 0.00 0.32 0.32 50 1004.5
20260510000959 62 283 1.7 7.0 0.00 0.32 0.32 50 1004.1
20260510000853 62 309 1.7 7.0 0.00 0.32 0.32 50 1004.5
20260510000747 62 247 0.9 7.0 0.00 0.32 0.32 50 1004.1
20260510000659 62 282 0.9 7.0 0.00 0.32 0.32 50 1004.1
20260510000642 62 315 1.7 7.0 0.00 0.32 0.32 50 1004.1
20260510000548 62 241 1.7 7.0 0.00 0.32 0.32 49 1004.1
20260510000433 63 224 1.7 7.0 0.00 0.32 0.32 50 1004.1
20260510000326 63 142 0.9 7.0 0.00 0.32 0.32 50 1004.1
20260510000219 63 272 0.9 7.0 0.00 0.32 0.32 49 1004.5
20260510000152 63 274 0.9 7.0 0.00 0.32 0.32 49 1004.5
20260510000112 63 325 1.7 7.0 0.00 0.32 0.32 49 1004.1
20260510000007 63 291 0.9 7.0 0.00 0.32 0.32 49 1004.1
20260509235901 63 312 4.3 7.0 0.00 0.32 0.32 48 1004.1
20260509235756 63 341 2.6 6.1 0.00 0.32 0.32 49 1004.1
20260509235649 63 302 0.9 7.8 0.00 0.32 0.32 48 1004.1
20260509235544 63 283 1.7 7.8 0.00 0.32 0.32 49 1004.1
20260509235439 63 274 3.5 7.8 0.00 0.32 0.32 48 1004.1
20260509235333 63 301 1.7 7.8 0.00 0.32 0.32 49 1003.8
20260509235227 63 217 1.7 7.8 0.00 0.32 0.32 49 1003.8
20260509235138 63 355 0.9 7.8 0.00 0.32 0.32 48 1004.1
20260509235122 63 335 1.7 7.8 0.00 0.32 0.32 48 1004.1
20260509235016 63 299 1.7 7.8 0.00 0.32 0.32 48 1004.1
20260509234911 64 0 0.0 7.8 0.00 0.32 0.32 48 1004.1
20260509234805 64 223 0.9 7.8 0.00 0.32 0.32 48 1004.1
20260509234659 64 285 3.5 5.2 0.00 0.32 0.32 47 1003.8
20260509234633 64 295 1.7 5.2 0.00 0.32 0.32 47 1004.1
20260509234553 64 8 1.7 5.2 0.00 0.32 0.32 48 1004.1
20260509234447 64 358 0.9 6.1 0.00 0.32 0.32 48 1003.8
20260509234342 64 327 2.6 6.1 0.00 0.32 0.32 47 1003.8
20260509234237 64 303 3.5 6.1 0.00 0.32 0.32 47 1004.1
20260509234131 64 235 0.9 6.1 0.00 0.32 0.32 47 1003.8
20260509234121 64 336 2.6 6.1 0.00 0.32 0.32 46 1003.8
20260509234117 64 290 1.7 6.1 0.00 0.32 0.32 47 1004.1
20260509234108 64 345 1.7 6.1 0.00 0.32 0.32 47 1004.1
20260509233845 64 297 1.7 6.1 0.00 0.32 0.32 47 1003.8
20260509233836 64 129 3.5 6.1 0.00 0.32 0.32 46 1003.8
20260509233602 64 330 2.6 6.1 0.00 0.32 0.32 46 1003.8
20260509233457 64 138 1.7 7.0 0.00 0.32 0.32 46 1003.4
20260509233415 65 79 2.6 9.6 0.00 0.32 0.32 45 1003.8
20260509233411 65 256 2.6 13.9 0.00 0.32 0.32 44 1003.4
20260509233407 64 51 0.9 7.0 0.00 0.32 0.32 45 1003.8
20260509233358 64 329 2.6 13.9 0.00 0.32 0.32 45 1003.8
20260509233350 65 299 4.3 13.9 0.00 0.32 0.32 44 1003.8
20260509233128 65 302 3.5 13.9 0.00 0.32 0.32 44 1003.8
20260509233119 65 309 1.7 13.9 0.00 0.32 0.32 46 1003.4
20260509232900 65 295 2.6 13.9 0.00 0.32 0.32 44 1003.8
20260509232852 65 191 0.9 13.9 0.00 0.32 0.32 44 1003.8
20260509232842 65 256 2.6 13.9 0.00 0.32 0.32 44 1003.4
20260509232622 65 303 6.1 13.9 0.00 0.32 0.32 43 1003.4
20260509232402 65 324 7.8 13.9 0.00 0.32 0.32 43 1003.8
20260509232354 65 216 3.5 15.6 0.00 0.32 0.32 43 1003.4
20260509232349 65 302 3.5 9.6 0.00 0.32 0.32 43 1003.8
20260509232341 65 276 3.5 9.6 0.00 0.32 0.32 44 1003.8
20260509232119 65 223 2.6 9.6 0.00 0.32 0.32 44 1003.8
20260509232110 65 359 4.3 9.6 0.00 0.32 0.32 44 1003.8
20260509231851 65 266 6.1 15.6 0.00 0.32 0.32 43 1003.8
20260509231842 65 251 4.3 15.6 0.00 0.32 0.32 43 1003.4
20260509231834 65 246 3.5 15.6 0.00 0.32 0.32 45 1003.8
20260509231600 65 267 3.5 15.6 0.00 0.32 0.32 45 1003.8
20260509231556 65 263 3.5 15.6 0.00 0.32 0.32 43 1003.8
20260509231548 65 236 0.9 15.6 0.00 0.32 0.32 44 1003.4
20260509231323 65 79 3.5 15.6 0.00 0.32 0.32 42 1003.8
20260509231315 65 21 5.2 15.6 0.00 0.32 0.32 42 1003.4
20260509231305 65 216 3.5 15.6 0.00 0.32 0.32 43 1003.4
20260509231043 66 207 5.2 13.9 0.00 0.32 0.32 41 1003.4
20260509231039 65 221 7.0 15.6 0.00 0.32 0.32 41 1003.4
20260509231030 66 335 6.1 13.9 0.00 0.32 0.32 42 1003.8
20260509230807 66 233 5.2 13.9 0.00 0.32 0.32 42 1003.4
20260509230758 66 242 4.3 13.9 0.00 0.32 0.32 41 1003.4
20260509230522 66 150 3.5 13.9 0.00 0.32 0.32 41 1003.4
20260509230417 67 234 9.6 13.9 0.00 0.32 0.32 40 1003.4
20260509230310 67 267 6.1 13.9 0.00 0.32 0.32 40 1003.8
20260509230300 67 277 5.2 13.9 0.00 0.32 0.32 41 1003.4
20260509230251 67 182 2.6 13.9 0.00 0.32 0.32 41 1003.4
20260509225954 67 290 1.7 13.9 0.00 0.32 0.32 41 1003.4
20260509225849 67 330 7.0 13.9 0.00 0.32 0.32 41 1003.4
20260509225741 67 206 5.2 13.9 0.00 0.32 0.32 41 1003.4
20260509225635 67 0 1.7 13.9 0.00 0.32 0.32 41 1003.4
20260509225529 66 337 1.7 13.9 0.00 0.32 0.32 42 1003.1
20260509225424 66 284 7.0 13.9 0.00 0.32 0.32 41 1003.4
20260509225318 66 313 2.6 11.3 0.00 0.32 0.32 43 1003.4
20260509225212 66 289 2.6 11.3 0.00 0.32 0.32 42 1003.4
20260509225106 66 328 3.5 11.3 0.00 0.32 0.32 41 1003.4
20260509225018 66 303 4.3 11.3 0.00 0.32 0.32 42 1003.1
20260509225001 66 118 3.5 11.3 0.00 0.32 0.32 41 1003.1
20260509224855 66 242 5.2 11.3 0.00 0.32 0.32 42 1003.4
20260509224749 66 318 4.3 11.3 0.00 0.32 0.32 41 1003.1
20260509224644 66 133 2.6 11.3 0.00 0.32 0.32 43 1003.4
20260509224536 66 303 0.9 11.3 0.00 0.32 0.32 44 1003.1
20260509224510 66 242 2.6 11.3 0.00 0.32 0.32 44 1003.1
20260509224430 66 270 3.5 11.3 0.00 0.32 0.32 43 1003.1
20260509224324 66 292 4.3 11.3 0.00 0.32 0.32 42 1003.1
20260509224219 66 223 2.6 12.2 0.00 0.32 0.32 43 1003.1
20260509224113 66 63 0.0 12.2 0.00 0.32 0.32 42 1003.1
20260509224007 66 195 2.6 12.2 0.00 0.32 0.32 44 1003.1
20260509223901 66 277 0.9 12.2 0.00 0.32 0.32 45 1003.1
20260509223756 66 283 1.7 12.2 0.00 0.32 0.32 43 1002.8
20260509223650 66 261 1.7 12.2 0.00 0.32 0.32 44 1003.1
20260509223544 66 282 3.5 12.2 0.00 0.32 0.32 42 1002.8
20260509223455 66 307 1.7 12.2 0.00 0.32 0.32 44 1002.8
20260509223438 66 313 2.6 12.2 0.00 0.32 0.32 42 1002.8
20260509223332 66 245 3.5 12.2 0.00 0.32 0.32 42 1003.1
20260509223227 67 226 7.0 12.2 0.00 0.32 0.32 42 1003.1
20260509223122 67 98 3.5 12.2 0.00 0.32 0.32 42 1002.8
20260509223016 67 213 5.2 12.2 0.00 0.32 0.32 40 1002.8
20260509222949 67 270 8.7 12.2 0.00 0.32 0.32 41 1002.8
20260509222910 67 189 1.7 9.6 0.00 0.32 0.32 42 1002.8
20260509222804 67 252 6.1 9.6 0.00 0.32 0.32 41 1002.8
20260509222659 67 112 3.5 9.6 0.00 0.32 0.32 42 1002.8
20260509222553 68 134 4.3 9.6 0.00 0.32 0.32 42 1002.8
20260509222447 68 293 4.3 6.1 0.00 0.32 0.32 41 1002.8
20260509222341 68 224 1.7 12.2 0.00 0.32 0.32 42 1002.8
20260509222236 68 345 0.9 13.9 0.00 0.32 0.32 43 1002.8
20260509222131 68 229 2.6 13.9 0.00 0.32 0.32 43 1002.8
20260509222024 69 207 2.6 13.9 0.00 0.32 0.32 42 1002.8
20260509221937 68 232 0.9 13.9 0.00 0.32 0.32 43 1002.8
20260509221919 68 251 0.9 13.9 0.00 0.32 0.32 43 1002.8
20260509221814 68 309 0.9 13.9 0.00 0.32 0.32 43 1002.8
20260509221709 68 254 3.5 13.9 0.00 0.32 0.32 42 1002.8
20260509221601 68 138 0.9 13.9 0.00 0.32 0.32 42 1002.8
20260509221455 68 257 3.5 13.9 0.00 0.32 0.32 42 1002.8
20260509221429 68 297 5.2 13.9 0.00 0.32 0.32 42 1002.3
20260509221350 68 260 7.8 13.9 0.00 0.32 0.32 42 1002.3
20260509221244 68 315 8.7 12.2 0.00 0.32 0.32 42 1002.3
20260509221138 68 278 1.7 9.6 0.00 0.32 0.32 45 1002.3
20260509221032 68 285 2.6 9.6 0.00 0.32 0.32 43 1002.3
20260509220926 68 234 3.5 9.6 0.00 0.32 0.32 43 1002.3
20260509220821 68 359 1.7 9.6 0.00 0.32 0.32 45 1002.3
20260509220716 67 118 1.7 9.6 0.00 0.32 0.32 43 1002.3
20260509220611 67 211 1.7 9.6 0.00 0.32 0.32 44 1002.3
20260509220505 67 259 1.7 9.6 0.00 0.32 0.32 43 1002.3
20260509220417 67 281 2.6 9.6 0.00 0.32 0.32 43 1002.3
20260509220358 67 274 3.5 6.1 0.00 0.32 0.32 44 1002.3
20260509220253 68 311 5.2 11.3 0.00 0.32 0.32 44 1002.3
20260509220147 68 272 1.7 11.3 0.00 0.32 0.32 43 1002.3
20260509220041 67 134 0.9 13.9 0.00 0.32 0.32 44 1002.0
20260509215936 67 219 0.9 13.9 0.00 0.32 0.32 44 1002.0
20260509215909 67 323 0.9 13.9 0.00 0.32 0.32 45 1002.0
20260509215828 67 164 0.9 13.9 0.00 0.32 0.32 43 1002.3
20260509215724 66 287 1.7 13.9 0.00 0.32 0.32 44 1002.3
20260509215617 66 91 0.9 13.9 0.00 0.32 0.32 44 1002.3
20260509215512 66 243 2.6 13.9 0.00 0.32 0.32 43 1002.3
20260509215405 66 253 5.2 13.9 0.00 0.32 0.32 43 1002.3
20260509215300 66 90 1.7 13.9 0.00 0.32 0.32 45 1002.3
20260509215155 67 240 6.1 13.9 0.00 0.32 0.32 43 1002.3
20260509215128 67 259 7.0 13.0 0.00 0.32 0.32 43 1002.3
20260509215124 67 236 2.6 13.0 0.00 0.32 0.32 45 1002.0
20260509215116 67 230 4.3 13.0 0.00 0.32 0.32 45 1002.3
20260509214837 67 197 7.0 13.0 0.00 0.32 0.32 44 1002.3
20260509214732 67 154 3.5 13.0 0.00 0.32 0.32 43 1002.0
20260509214627 68 325 2.6 13.0 0.00 0.32 0.32 42 1002.0
20260509214521 68 311 5.2 13.0 0.00 0.32 0.32 41 1002.0
20260509214415 68 266 6.1 19.1 0.00 0.32 0.32 41 1001.6
20260509214350 68 195 9.6 19.1 0.00 0.32 0.32 40 1001.6
20260509214311 68 211 6.1 19.1 0.00 0.32 0.32 42 1002.0
20260509214205 68 261 7.8 19.1 0.00 0.32 0.32 41 1002.0
20260509214101 68 325 1.7 19.1 0.00 0.32 0.32 42 1002.0
20260509213954 68 244 3.5 19.1 0.00 0.32 0.32 42 1002.0
20260509213848 68 242 2.6 19.1 0.00 0.32 0.32 43 1001.6
20260509213742 68 130 1.7 19.1 0.00 0.32 0.32 41 1001.6
20260509213637 68 271 1.7 19.1 0.00 0.32 0.32 42 1001.6
20260509213531 68 269 2.6 19.1 0.00 0.32 0.32 42 1001.6
20260509213426 67 224 8.7 19.1 0.00 0.32 0.32 41 1002.0
20260509213337 67 228 4.3 15.6 0.00 0.32 0.32 41 1002.0
20260509213322 67 245 2.6 15.6 0.00 0.32 0.32 41 1002.0
20260509213215 67 160 3.5 15.6 0.00 0.32 0.32 42 1002.0
20260509213110 67 276 9.6 15.6 0.00 0.32 0.32 40 1002.3
20260509213003 67 232 7.0 15.6 0.00 0.32 0.32 40 1002.0
20260509212859 67 89 5.2 15.6 0.00 0.32 0.32 40 1002.0
20260509212831 67 252 7.0 15.6 0.00 0.32 0.32 40 1001.6
20260509212752 67 248 7.8 15.6 0.00 0.32 0.32 40 1001.6
20260509212647 67 217 5.2 15.6 0.00 0.32 0.32 40 1002.0
20260509212539 67 243 4.3 15.6 0.00 0.32 0.32 40 1001.6
20260509212433 68 251 7.0 15.6 0.00 0.32 0.32 40 1002.0
20260509212327 68 241 10.4 15.6 0.00 0.32 0.32 40 1002.0
20260509212221 68 272 4.3 11.3 0.00 0.32 0.32 42 1002.0
20260509212116 68 228 5.2 11.3 0.00 0.32 0.32 40 1002.0
20260509212010 68 214 4.3 13.0 0.00 0.32 0.32 43 1002.0
20260509211904 68 212 5.2 13.0 0.00 0.32 0.32 42 1002.0
20260509211816 68 156 2.6 13.0 0.00 0.32 0.32 44 1001.6
20260509211759 68 284 2.6 13.0 0.00 0.32 0.32 44 1001.6
20260509211653 68 241 3.5 13.0 0.00 0.32 0.32 42 1001.6
20260509211547 68 236 2.6 13.9 0.00 0.32 0.32 41 1002.0
20260509211443 68 197 4.3 13.9 0.00 0.32 0.32 42 1001.6
20260509211336 68 273 5.2 13.9 0.00 0.32 0.32 41 1001.6
20260509211310 68 168 4.3 13.9 0.00 0.32 0.32 42 1001.6
20260509211244 68 299 5.2 13.9 0.00 0.32 0.32 42 1002.0
20260509211122 66 218 1.7 12.2 0.00 0.32 0.32 50 1002.8
20260509211117 67 225 4.3 13.9 0.00 0.32 0.32 45 1002.0
20260509211056 67 229 3.5 13.9 0.00 0.32 0.32 45 1002.0
20260509211047 67 284 3.5 13.9 0.00 0.32 0.32 42 1002.0
20260509210826 67 160 2.6 13.9 0.00 0.32 0.32 44 1002.0
20260509210822 67 197 5.2 13.9 0.00 0.32 0.32 42 1002.0
20260509210813 67 216 9.6 13.9 0.00 0.32 0.32 41 1002.0
20260509210554 67 120 5.2 12.2 0.00 0.32 0.32 42 1002.0
20260509210545 67 215 5.2 12.2 0.00 0.32 0.32 43 1002.0
20260509210324 67 214 5.2 11.3 0.00 0.32 0.32 44 1002.0
20260509210314 67 226 3.5 11.3 0.00 0.32 0.32 43 1002.0
20260509210310 67 238 6.1 11.3 0.00 0.32 0.32 42 1001.6
20260509210301 67 259 6.1 11.3 0.00 0.32 0.32 43 1001.6
20260509210041 66 244 3.5 12.2 0.00 0.32 0.32 48 1002.0
20260509210037 67 149 3.5 11.3 0.00 0.32 0.32 44 1002.0
20260509210028 67 201 7.0 11.3 0.00 0.32 0.32 43 1002.0
20260509205805 67 146 5.2 11.3 0.00 0.32 0.32 45 1002.0
20260509205801 67 256 4.3 11.3 0.00 0.32 0.32 47 1002.0
20260509205753 67 173 1.7 11.3 0.00 0.32 0.32 45 1002.0
20260509205744 67 268 5.2 11.3 0.00 0.32 0.32 45 1002.0
20260509205524 67 261 5.2 9.6 0.00 0.32 0.32 43 1002.0
20260509205515 67 234 3.5 11.3 0.00 0.32 0.32 45 1002.0
20260509205254 67 289 5.2 11.3 0.00 0.32 0.32 47 1002.0
20260509205250 67 206 1.7 11.3 0.00 0.32 0.32 46 1002.0
20260509205242 67 272 3.5 11.3 0.00 0.32 0.32 47 1002.0
20260509205022 67 196 2.6 11.3 0.00 0.32 0.32 46 1002.3
20260509205013 67 277 3.5 12.2 0.00 0.32 0.32 47 1002.0
20260509205005 66 220 7.0 12.2 0.00 0.32 0.32 46 1002.0
20260509204743 66 253 2.6 12.2 0.00 0.32 0.32 46 1002.0
20260509204734 66 265 4.3 12.2 0.00 0.32 0.32 45 1002.0
20260509204515 66 337 4.3 12.2 0.00 0.32 0.32 48 1002.3
20260509204511 66 189 4.3 12.2 0.00 0.32 0.32 46 1002.0
20260509204502 66 273 8.7 12.2 0.00 0.32 0.32 45 1002.3
20260509204239 66 337 4.3 12.2 0.00 0.32 0.32 48 1002.3
20260509204230 67 239 3.5 12.2 0.00 0.32 0.32 47 1002.3
20260509204222 67 253 7.8 12.2 0.00 0.32 0.32 46 1002.3
20260509203957 67 228 3.5 12.2 0.00 0.32 0.32 50 1002.8
20260509203948 67 259 1.7 12.2 0.00 0.32 0.32 51 1002.8
20260509203727 66 273 3.5 12.2 0.00 0.32 0.32 49 1002.3
20260509203723 66 252 3.5 12.2 0.00 0.32 0.32 50 1002.3
20260509203715 66 231 2.6 12.2 0.00 0.32 0.32 50 1002.3
20260509203455 66 273 1.7 12.2 0.00 0.32 0.32 53 1002.3
20260509203446 66 277 2.6 12.2 0.00 0.32 0.32 51 1002.3
20260509203438 66 218 1.7 12.2 0.00 0.32 0.32 50 1002.8
20260509203128 66 223 5.2 12.2 0.00 0.32 0.32 50 1002.8
20260509203022 66 228 6.1 12.2 0.00 0.32 0.32 50 1002.3
20260509202943 66 239 6.1 11.3 0.00 0.32 0.32 49 1002.8
20260509202939 66 247 3.5 12.2 0.00 0.32 0.32 51 1002.3
20260509202930 65 247 4.3 12.2 0.00 0.32 0.32 49 1002.8
20260509202705 66 223 5.2 11.3 0.00 0.32 0.32 51 1002.8
20260509202559 65 178 5.2 11.3 0.00 0.32 0.32 49 1002.8
20260509202453 65 208 3.5 11.3 0.00 0.32 0.32 53 1002.8
20260509202436 65 213 3.5 12.2 0.00 0.32 0.32 51 1002.8
20260509202432 65 16 7.0 12.2 0.00 0.32 0.32 51 1002.8
20260509202423 65 206 5.2 12.2 0.00 0.32 0.32 51 1002.8
20260509202137 66 278 7.0 12.2 0.00 0.32 0.32 50 1002.3
20260509202031 65 229 3.5 12.2 0.00 0.32 0.32 52 1002.8
20260509201938 66 289 4.3 12.2 0.00 0.32 0.32 54 1002.8
20260509201934 65 217 1.7 12.2 0.00 0.32 0.32 53 1002.8
20260509201925 66 345 3.5 12.2 0.00 0.32 0.32 49 1002.3
20260509201917 66 328 8.7 12.2 0.00 0.32 0.32 52 1002.8
20260509201609 66 156 8.7 12.2 0.00 0.32 0.32 52 1002.8
20260509201503 66 322 8.7 12.2 0.00 0.32 0.32 51 1002.8
20260509201358 66 226 5.2 12.2 0.00 0.32 0.32 53 1002.8
20260509201252 66 258 5.2 12.2 0.00 0.32 0.32 53 1002.3
20260509201146 67 214 6.1 8.7 0.00 0.32 0.32 54 1002.8
20260509201040 67 107 3.5 9.6 0.00 0.32 0.32 61 1002.8
20260509200934 66 240 4.3 9.6 0.00 0.32 0.32 60 1002.8
20260509200828 66 336 0.9 9.6 0.00 0.32 0.32 65 1002.8
20260509200723 66 324 1.7 9.6 0.00 0.32 0.32 65 1002.8
20260509200646 65 246 0.9 9.6 0.00 0.32 0.32 65 1002.8
20260509200631 65 352 2.6 9.6 0.00 0.32 0.32 66 1002.8
20260509200511 65 244 3.5 9.6 0.00 0.32 0.32 66 1002.8
20260509200405 65 303 1.7 9.6 0.00 0.32 0.32 68 1002.8
20260509200300 64 275 1.7 9.6 0.00 0.32 0.32 67 1002.8
20260509200154 64 243 1.7 9.6 0.00 0.32 0.32 67 1002.8
20260509200139 64 100 0.9 9.6 0.00 0.32 0.32 67 1002.8
20260509195942 64 236 1.7 7.8 0.00 0.32 0.32 68 1002.8
20260509195837 64 241 4.3 7.8 0.00 0.32 0.32 68 1002.8
20260509195732 64 233 5.2 7.8 0.00 0.32 0.32 66 1002.8
20260509195632 64 266 3.5 6.1 0.00 0.32 0.32 70 1003.1
20260509195625 64 268 2.6 6.1 0.00 0.32 0.32 71 1003.1
20260509195519 64 249 4.3 6.1 0.01 0.32 0.32 68 1002.8
20260509195413 63 309 1.7 6.1 0.01 0.32 0.32 69 1002.8
20260509195308 63 271 3.5 6.1 0.01 0.32 0.32 70 1002.8
20260509195203 63 247 1.7 6.1 0.02 0.32 0.32 72 1002.8
20260509195124 63 332 1.7 6.1 0.03 0.32 0.32 71 1002.8
20260509195056 62 271 2.6 6.1 0.03 0.32 0.32 70 1002.8
20260509194951 62 261 1.7 6.1 0.05 0.32 0.32 72 1002.3
20260509194845 62 295 1.7 6.1 0.08 0.32 0.32 72 1002.3
20260509194740 62 231 2.6 5.2 0.11 0.32 0.32 76 1002.8
20260509194634 62 227 0.9 3.5 0.13 0.32 0.32 75 1002.8
20260509194618 62 226 0.9 3.5 0.13 0.32 0.32 75 1002.8
20260509194529 62 277 2.6 3.5 0.15 0.32 0.32 76 1002.8
20260509194423 62 280 3.5 3.5 0.23 0.32 0.32 78 1002.8
20260509194317 62 259 1.7 3.5 0.28 0.32 0.32 78 1002.8
20260509194211 62 290 0.9 2.6 0.31 0.32 0.32 82 1002.8
20260509194114 61 315 1.7 2.6 0.32 0.32 0.32 81 1002.8
20260509194000 61 290 0.9 3.5 0.32 0.32 0.32 82 1002.8
20260509193854 61 322 1.7 3.5 0.32 0.32 0.32 80 1002.8
20260509193748 61 89 1.7 3.5 0.32 0.32 0.32 81 1002.8
20260509193642 61 224 1.7 5.2 0.32 0.32 0.32 82 1002.8
20260509193605 60 189 0.9 5.2 0.32 0.32 0.32 83 1002.8
20260509193537 60 245 0.9 5.2 0.32 0.32 0.32 83 1002.8
20260509193431 60 235 2.6 5.2 0.32 0.32 0.32 82 1002.8
20260509193325 59 219 0.0 5.2 0.32 0.32 0.32 85 1002.8
20260509193220 59 209 0.9 5.2 0.32 0.32 0.32 84 1002.8
20260509193114 59 224 1.7 5.2 0.32 0.32 0.32 84 1002.8
20260509193058 58 288 2.6 5.2 0.32 0.32 0.32 84 1002.8
20260509193008 58 224 1.7 5.2 0.32 0.32 0.32 86 1002.8
20260509192904 58 219 1.7 5.2 0.32 0.32 0.32 86 1002.8
20260509192757 58 254 2.6 5.2 0.32 0.32 0.32 87 1002.8
20260509192652 58 223 0.9 2.6 0.32 0.32 0.32 90 1002.8
20260509192552 58 220 1.7 2.6 0.32 0.32 0.32 90 1003.1
20260509192546 58 173 1.7 2.6 0.32 0.32 0.32 90 1002.8
20260509192440 58 291 1.7 2.6 0.32 0.32 0.32 90 1002.8
20260509192334 57 222 0.0 2.6 0.32 0.32 0.32 91 1003.1
20260509192229 57 237 0.9 2.6 0.32 0.32 0.32 90 1003.1
20260509192124 57 241 0.9 2.6 0.32 0.32 0.32 91 1003.1
20260509192045 57 154 0.0 2.6 0.32 0.32 0.32 91 1003.1
20260509192018 56 171 1.7 2.6 0.32 0.32 0.32 91 1003.1
20260509191912 56 236 1.7 2.6 0.32 0.32 0.32 91 1003.1
20260509191806 56 225 0.9 2.6 0.32 0.32 0.32 91 1003.4
20260509191659 55 134 0.9 2.6 0.32 0.32 0.32 92 1003.1
20260509191553 55 229 0.9 2.6 0.32 0.32 0.32 91 1003.4
20260509191537 55 197 0.9 2.6 0.32 0.32 0.32 92 1003.4
20260509191447 55 240 1.7 2.6 0.32 0.32 0.32 91 1003.4
20260509191341 54 216 0.9 2.6 0.32 0.32 0.32 91 1003.1
20260509191236 54 234 1.7 2.6 0.32 0.32 0.32 91 1003.1
20260509191130 53 174 1.7 2.6 0.32 0.32 0.32 92 1003.1
20260509191031 53 228 0.9 2.6 0.32 0.32 0.32 91 1003.4
20260509191025 53 231 0.9 2.6 0.32 0.32 0.32 91 1003.4
20260509190919 52 184 1.7 2.6 0.32 0.32 0.32 91 1003.4
20260509190813 52 228 0.9 2.6 0.32 0.32 0.32 91 1003.1
20260509190708 52 212 0.9 2.6 0.32 0.32 0.32 91 1003.1
20260509190603 52 194 1.7 2.6 0.32 0.32 0.32 91 1003.4
20260509190525 52 221 0.9 2.6 0.32 0.32 0.32 91 1003.4
20260509190457 52 232 1.7 5.2 0.32 0.32 0.32 91 1003.4
20260509190351 52 211 1.7 7.8 0.32 0.32 0.32 91 1003.4
20260509190246 51 265 0.9 8.7 0.32 0.32 0.32 91 1003.4
20260509190140 51 221 1.7 8.7 0.32 0.32 0.32 90 1003.4
20260509190034 51 211 0.9 8.7 0.32 0.32 0.32 90 1003.4
20260509190019 51 191 1.7 8.7 0.32 0.32 0.32 90 1003.4
20260509185929 51 227 1.7 8.7 0.32 0.32 0.32 90 1003.4
20260509185823 51 261 1.7 8.7 0.32 0.32 0.32 90 1003.4
20260509185717 50 189 1.7 8.7 0.32 0.32 0.32 90 1003.4
20260509185612 50 232 0.9 8.7 0.31 0.31 0.31 90 1003.4
20260509185511 51 221 3.5 8.7 0.31 0.31 0.31 89 1003.4
20260509185505 51 227 1.7 8.7 0.31 0.31 0.31 89 1003.4
20260509185359 51 242 1.7 8.7 0.31 0.31 0.31 89 1003.4
20260509185254 51 143 4.3 12.2 0.30 0.30 0.31 89 1003.4
20260509185148 51 216 3.5 18.2 0.29 0.29 0.30 89 1003.8
20260509185043 51 196 2.6 18.2 0.27 0.27 0.29 89 1003.4
20260509185006 51 241 1.7 18.2 0.27 0.27 0.29 89 1003.4
20260509184937 51 121 1.7 18.2 0.24 0.24 0.27 88 1003.4
20260509184831 51 169 1.7 20.0 0.21 0.21 0.23 88 1003.8
20260509184727 51 217 4.3 20.0 0.19 0.19 0.20 87 1003.8
20260509184621 53 229 1.7 20.0 0.17 0.17 0.19 86 1003.8
20260509184515 55 91 2.6 20.0 0.09 0.09 0.16 84 1003.4
20260509184459 55 120 6.1 20.0 0.09 0.09 0.13 83 1003.4
20260509184409 57 253 7.0 20.0 0.04 0.04 0.08 80 1003.8
20260509184304 59 315 4.3 20.0 0.01 0.01 0.03 75 1003.8
20260509184158 61 263 12.2 20.0 0.00 0.00 0.01 69 1003.4
20260509184052 62 227 5.2 20.0 0.00 0.00 0.00 64 1003.4
20260509183950 64 302 8.7 20.0 0.00 0.00 0.00 58 1003.4
20260509183945 65 337 11.3 20.0 0.00 0.00 0.00 56 1002.3
20260509183840 65 23 3.5 11.3 0.00 0.00 0.00 56 1002.3
20260509183733 65 279 7.0 11.3 0.00 0.00 0.00 55 1002.3
20260509183627 66 273 3.5 11.3 0.00 0.00 0.00 56 1002.0
20260509183523 66 304 2.6 11.3 0.00 0.00 0.00 54 1002.3
20260509183444 66 221 2.6 11.3 0.00 0.00 0.00 54 1002.3
20260509183416 66 271 5.2 11.3 0.00 0.00 0.00 53 1002.0
20260509183311 66 243 2.6 11.3 0.00 0.00 0.00 53 1002.0
20260509183205 66 219 6.1 11.3 0.00 0.00 0.00 53 1002.0
20260509183059 66 218 3.5 9.6 0.00 0.00 0.00 54 1002.0
20260509182938 66 228 5.2 11.3 0.00 0.00 0.00 54 1002.0
20260509182848 66 229 2.6 11.3 0.00 0.00 0.00 54 1002.0
20260509182742 66 249 2.6 11.3 0.00 0.00 0.00 54 1002.0
20260509182637 66 256 5.2 11.3 0.00 0.00 0.00 54 1001.6
20260509182531 66 238 3.5 11.3 0.00 0.00 0.00 55 1001.6
20260509182432 66 201 2.6 11.3 0.00 0.00 0.00 55 1002.0
20260509182426 66 308 3.5 11.3 0.00 0.00 0.00 55 1002.0
20260509182320 66 206 6.1 11.3 0.00 0.00 0.00 55 1001.6
20260509182215 66 242 3.5 14.8 0.00 0.00 0.00 55 1001.6
20260509182121 66 197 3.5 14.8 0.00 0.00 0.00 55 1001.6
20260509182002 66 281 6.1 14.8 0.00 0.00 0.00 55 1001.6
20260509181925 66 246 5.2 14.8 0.00 0.00 0.00 56 1001.6
20260509181857 66 197 6.1 14.8 0.00 0.00 0.00 55 1001.6
20260509181751 66 221 4.3 15.6 0.00 0.00 0.00 56 1001.6
20260509181645 66 232 7.8 15.6 0.00 0.00 0.00 55 1001.6
20260509181538 66 205 8.7 15.6 0.00 0.00 0.00 55 1001.3
20260509181433 66 201 7.8 15.6 0.00 0.00 0.00 55 1001.6
20260509181418 67 194 6.1 15.6 0.00 0.00 0.00 55 1001.6
20260509181327 67 205 10.4 15.6 0.00 0.00 0.00 54 1001.6
20260509181221 66 153 4.3 15.6 0.00 0.00 0.00 56 1001.6
20260509181117 67 186 7.0 15.6 0.00 0.00 0.00 55 1001.6
20260509181011 67 228 5.2 15.6 0.00 0.00 0.00 55 1001.6
20260509180911 67 248 7.8 20.0 0.00 0.00 0.00 55 1001.6
20260509180905 67 231 7.0 20.0 0.00 0.00 0.00 55 1001.6
20260509180759 67 223 3.5 20.0 0.00 0.00 0.00 55 1001.6
20260509180654 67 218 5.2 20.0 0.00 0.00 0.00 55 1001.6
20260509180548 67 216 5.2 20.0 0.00 0.00 0.00 55 1001.6
20260509180442 66 243 7.0 20.0 0.00 0.00 0.00 54 1001.6
20260509180404 66 220 2.6 20.0 0.00 0.00 0.00 56 1001.6
20260509180337 66 191 5.2 20.0 0.00 0.00 0.00 55 1001.6
20260509180231 66 123 9.6 20.0 0.00 0.00 0.00 55 1001.6
20260509180125 66 248 5.2 20.0 0.00 0.00 0.00 55 1001.6
20260509180019 66 160 9.6 20.0 0.00 0.00 0.00 55 1001.6
20260509175913 67 205 7.8 12.2 0.00 0.00 0.00 55 1001.3
20260509175857 67 205 7.8 12.2 0.00 0.00 0.00 55 1001.3
20260509175806 67 214 7.0 12.2 0.00 0.00 0.00 55 1001.6
20260509175701 67 258 3.5 16.5 0.00 0.00 0.00 55 1001.6
20260509175556 67 263 5.2 16.5 0.00 0.00 0.00 55 1001.6
20260509175450 67 229 4.3 16.5 0.00 0.00 0.00 55 1001.6
20260509175350 67 152 3.5 16.5 0.00 0.00 0.00 55 1001.6
20260509175344 67 210 3.5 16.5 0.00 0.00 0.00 55 1001.6
20260509175238 67 231 5.2 16.5 0.00 0.00 0.00 55 1001.6
20260509175132 67 228 6.1 16.5 0.00 0.00 0.00 55 1001.6
20260509175026 67 187 9.6 16.5 0.00 0.00 0.00 54 1001.6
20260509174920 67 124 7.8 16.5 0.00 0.00 0.00 55 1001.6
20260509174843 67 178 5.2 16.5 0.00 0.00 0.00 55 1001.6
20260509174815 67 229 12.2 16.5 0.00 0.00 0.00 55 1001.6
20260509174709 67 235 6.1 14.8 0.00 0.00 0.00 54 1001.6
20260509174603 67 238 4.3 14.8 0.00 0.00 0.00 54 1002.0
20260509174458 67 236 6.1 14.8 0.00 0.00 0.00 55 1001.6
20260509174352 67 164 12.2 14.8 0.00 0.00 0.00 53 1001.6
20260509174336 67 188 8.7 14.8 0.00 0.00 0.00 53 1001.6
20260509174259 67 252 5.2 14.8 0.00 0.00 0.00 54 1001.6
20260509174140 67 234 9.6 14.8 0.00 0.00 0.00 54 1001.6
20260509174036 68 177 6.1 14.8 0.00 0.00 0.00 54 1001.6
20260509173930 68 231 9.6 16.5 0.00 0.00 0.00 54 1001.6
20260509173829 68 237 7.8 16.5 0.00 0.00 0.00 53 1002.0
20260509173823 68 273 4.3 16.5 0.00 0.00 0.00 53 1002.0
20260509173719 68 263 4.3 16.5 0.00 0.00 0.00 54 1002.0
20260509173613 67 115 3.5 16.5 0.00 0.00 0.00 56 1002.0
20260509173507 67 232 4.3 16.5 0.00 0.00 0.00 55 1002.0
20260509173401 67 251 5.2 16.5 0.00 0.00 0.00 54 1002.0
20260509173324 67 94 5.2 16.5 0.00 0.00 0.00 54 1002.0
20260509173256 67 249 7.0 16.5 0.00 0.00 0.00 54 1002.0
20260509173150 67 198 4.3 16.5 0.00 0.00 0.00 56 1002.0
20260509173042 67 224 6.1 16.5 0.00 0.00 0.00 56 1001.6
20260509172937 67 205 6.1 14.8 0.00 0.00 0.00 56 1001.6
20260509172815 67 228 11.3 14.8 0.00 0.00 0.00 55 1002.0
20260509172725 67 237 3.5 14.8 0.00 0.00 0.00 59 1001.6
20260509172620 67 182 7.0 14.8 0.00 0.00 0.00 59 1002.0
20260509172520 67 180 9.6 13.9 0.00 0.00 0.00 58 1002.0
20260509172408 67 230 2.6 13.9 0.00 0.00 0.00 58 1002.0
20260509172309 67 208 7.0 13.9 0.00 0.00 0.00 58 1002.0
20260509172306 67 208 7.0 13.9 0.00 0.00 0.00 58 1002.0
20260509172157 67 214 7.8 13.9 0.00 0.00 0.00 58 1002.0
20260509172051 66 200 7.8 13.9 0.00 0.00 0.00 58 1002.0
20260509171946 67 243 6.1 19.1 0.00 0.00 0.00 58 1002.0
20260509171840 67 204 9.6 19.1 0.00 0.00 0.00 58 1001.6
20260509171802 67 166 7.0 19.1 0.00 0.00 0.00 58 1001.6
20260509171734 67 129 2.6 19.1 0.00 0.00 0.00 58 1002.0
20260509171629 67 108 5.2 19.1 0.00 0.00 0.00 58 1001.6
20260509171523 67 218 2.6 19.1 0.00 0.00 0.00 58 1001.6
20260509171417 66 197 7.0 19.1 0.00 0.00 0.00 59 1001.6
20260509171311 66 205 5.2 19.1 0.00 0.00 0.00 59 1001.6
20260509171256 66 167 8.7 19.1 0.00 0.00 0.00 58 1001.6
20260509171206 67 192 10.4 19.1 0.00 0.00 0.00 58 1002.0
20260509171101 67 95 7.8 19.1 0.00 0.00 0.00 58 1002.0
20260509170955 67 157 6.1 15.6 0.00 0.00 0.00 58 1002.0
20260509170850 66 223 4.3 15.6 0.00 0.00 0.00 57 1002.0
20260509170749 66 181 3.5 15.6 0.00 0.00 0.00 59 1002.0
20260509170743 66 234 3.5 15.6 0.00 0.00 0.00 58 1002.0
20260509170638 66 231 5.2 15.6 0.00 0.00 0.00 58 1002.0
20260509170532 67 240 9.6 16.5 0.00 0.00 0.00 58 1002.3
20260509170426 67 141 7.0 16.5 0.00 0.00 0.00 58 1002.3
20260509170320 67 278 6.1 16.5 0.00 0.00 0.00 57 1002.0
20260509170244 66 228 7.8 16.5 0.00 0.00 0.00 58 1002.0
20260509170215 66 227 5.2 16.5 0.00 0.00 0.00 58 1002.0
20260509170110 66 227 5.2 16.5 0.00 0.00 0.00 58 1002.0
20260509170005 67 186 7.8 18.2 0.00 0.00 0.00 57 1002.3
20260509165859 66 174 4.3 18.2 0.00 0.00 0.00 57 1001.6
20260509165753 67 231 2.6 18.2 0.00 0.00 0.00 58 1002.3
20260509165737 67 231 2.6 18.2 0.00 0.00 0.00 58 1001.6
20260509165646 67 178 11.3 18.2 0.00 0.00 0.00 57 1002.0
20260509165541 66 208 5.2 18.2 0.00 0.00 0.00 57 1002.0
20260509165435 66 187 3.5 18.2 0.00 0.00 0.00 59 1002.0
20260509165330 66 219 4.3 18.2 0.00 0.00 0.00 58 1002.0
20260509165230 66 125 5.2 18.2 0.00 0.00 0.00 57 1002.0
20260509165224 66 171 10.4 18.2 0.00 0.00 0.00 57 1002.0
20260509165118 67 168 9.6 18.2 0.00 0.00 0.00 57 1002.0
20260509165014 67 208 7.8 16.5 0.00 0.00 0.00 56 1002.3
20260509164907 67 207 3.5 20.0 0.00 0.00 0.00 57 1002.3
20260509164835 62 172 3.5 11.3 0.00 0.00 0.00 66 1002.8
20260509164831 64 211 10.4 13.0 0.00 0.00 0.00 61 1002.0
20260509164827 67 224 9.6 20.0 0.00 0.00 0.00 55 1002.0
20260509164817 67 145 7.8 20.0 0.00 0.00 0.00 56 1002.0
20260509164812 67 154 5.2 20.0 0.00 0.00 0.00 56 1002.0
20260509164551 66 183 5.2 20.0 0.00 0.00 0.00 59 1002.0
20260509164542 65 134 5.2 20.0 0.00 0.00 0.00 59 1002.0
20260509164538 65 253 3.5 20.0 0.00 0.00 0.00 58 1002.3
20260509164529 65 189 4.3 20.0 0.00 0.00 0.00 58 1002.0
20260509164521 65 220 1.7 20.0 0.00 0.00 0.00 59 1002.0